FW3681 Weather Reports


Display with metric or nautical units.
time (UTC)temp
F
wind
direction
speed
MPH
gust
MPH
rain 1hr
in
rain 24hr
in
rain mn
in
humidity
%
barometer
mb
20260903141459 84 1 4.0 5.0 0.00 0.00 0.00 73 1017.1
20260903141258 84 349 4.0 5.0 0.00 0.00 0.00 73 1017.0
20260903141157 84 333 3.0 5.0 0.00 0.00 0.00 72 1017.1
20260903141058 84 340 4.0 5.0 0.00 0.00 0.00 73 1017.1
20260903141001 84 340 4.0 5.0 0.00 0.00 0.00 73 1017.1
20260903140858 84 13 2.0 5.0 0.00 0.00 0.00 73 1017.1
20260903140757 84 13 2.0 5.0 0.00 0.00 0.00 73 1017.1
20260903140558 83 12 3.0 5.0 0.00 0.00 0.00 73 1017.1
20260903140459 83 345 0.0 5.0 0.00 0.00 0.00 73 1017.1
20260903140358 83 57 3.0 5.0 0.00 0.00 0.00 74 1017.2
20260903140258 83 360 3.0 5.0 0.00 0.00 0.00 73 1017.1
20260903140058 83 347 3.0 5.0 0.00 0.00 0.00 74 1017.0
20260903140002 83 60 2.0 5.0 0.00 0.00 0.00 74 1017.0
20260903135859 83 79 0.0 5.0 0.00 0.00 0.00 73 1017.0
20260903135758 84 104 0.0 5.0 0.00 0.00 0.00 73 1017.0
20260903135657 84 44 3.0 5.0 0.00 0.00 0.00 74 1017.0
20260903135558 84 333 3.0 5.0 0.00 0.00 0.00 74 1016.9
20260903135459 84 338 2.0 5.0 0.00 0.00 0.00 73 1017.0
20260903135358 84 34 1.0 5.0 0.00 0.00 0.00 73 1016.9
20260903135258 84 13 2.0 5.0 0.00 0.00 0.00 74 1017.0
20260903135158 84 345 3.0 5.0 0.00 0.00 0.00 74 1016.9
20260903135002 83 348 1.0 5.0 0.00 0.00 0.00 74 1017.0
20260903134858 83 357 4.0 5.0 0.00 0.00 0.00 75 1016.9
20260903134758 83 328 1.0 5.0 0.00 0.00 0.00 75 1016.8
20260903134658 83 352 4.0 5.0 0.00 0.00 0.00 75 1017.0
20260903134458 83 333 3.0 5.0 0.00 0.00 0.00 75 1016.9
20260903134358 83 23 0.0 5.0 0.00 0.00 0.00 74 1017.0
20260903134258 83 81 0.0 5.0 0.00 0.00 0.00 74 1016.9
20260903134158 83 96 4.0 5.0 0.00 0.00 0.00 74 1017.0
20260903134000 83 1 2.0 5.0 0.00 0.00 0.00 75 1017.0
20260903133857 83 299 2.0 5.0 0.00 0.00 0.00 74 1016.9
20260903133757 83 354 1.0 5.0 0.00 0.00 0.00 75 1016.9
20260903133557 83 354 3.0 5.0 0.00 0.00 0.00 76 1016.9
20260903133459 83 352 3.0 5.0 0.00 0.00 0.00 76 1016.9
20260903133358 83 345 4.0 5.0 0.00 0.00 0.00 76 1016.9
20260903133258 82 356 3.0 5.0 0.00 0.00 0.00 76 1016.9
20260903133157 82 326 0.0 5.0 0.00 0.00 0.00 76 1016.8
20260903133058 82 335 3.0 5.0 0.00 0.00 0.00 76 1016.9
20260903133000 83 335 4.0 5.0 0.00 0.00 0.00 76 1016.8
20260903132858 83 335 4.0 5.0 0.00 0.00 0.00 76 1016.8
20260903132759 82 349 3.0 5.0 0.00 0.00 0.00 76 1016.8
20260903132657 82 340 3.0 5.0 0.00 0.00 0.00 76 1016.8
20260903132557 82 333 3.0 5.0 0.00 0.00 0.00 77 1016.8
20260903132458 82 326 3.0 5.0 0.00 0.00 0.00 77 1016.8
20260903132357 82 1 4.0 4.0 0.00 0.00 0.00 77 1016.8
20260903132258 82 330 3.0 4.0 0.00 0.00 0.00 77 1016.9
20260903132158 82 350 2.0 4.0 0.00 0.00 0.00 78 1016.8
20260903132057 82 350 2.0 4.0 0.00 0.00 0.00 78 1016.9
20260903132000 81 6 0.0 4.0 0.00 0.00 0.00 78 1016.9
20260903131858 81 1 2.0 4.0 0.00 0.00 0.00 77 1016.9
20260903131758 81 125 1.0 4.0 0.00 0.00 0.00 78 1016.9
20260903131658 81 15 0.0 4.0 0.00 0.00 0.00 78 1016.9
20260903131558 81 112 0.0 4.0 0.00 0.00 0.00 78 1016.9
20260903131357 81 360 2.0 4.0 0.00 0.00 0.00 78 1016.8
20260903131257 81 350 1.0 4.0 0.00 0.00 0.00 78 1016.9
20260903131158 81 79 0.0 4.0 0.00 0.00 0.00 79 1016.9
20260903131000 81 338 3.0 4.0 0.00 0.00 0.00 79 1016.9
20260903130858 81 359 2.0 4.0 0.00 0.00 0.00 79 1016.9
20260903130658 80 348 2.0 4.0 0.00 0.00 0.00 78 1016.9
20260903130557 81 335 3.0 4.0 0.00 0.00 0.00 79 1016.9
20260903130358 81 322 1.0 4.0 0.00 0.00 0.00 79 1016.8
20260903130258 81 327 1.0 4.0 0.00 0.00 0.00 79 1016.8
20260903130157 80 354 2.0 4.0 0.00 0.00 0.00 79 1016.9
20260903130058 80 350 2.0 4.0 0.00 0.00 0.00 79 1016.8
20260903130003 80 78 0.0 4.0 0.00 0.00 0.00 80 1016.8
20260903125857 80 79 2.0 5.0 0.00 0.00 0.00 80 1016.8
20260903125758 80 342 2.0 5.0 0.00 0.00 0.00 80 1016.8
20260903125659 80 354 2.0 5.0 0.00 0.00 0.00 80 1016.7
20260903125558 80 327 3.0 5.0 0.00 0.00 0.00 81 1016.7
20260903125500 79 342 3.0 5.0 0.00 0.00 0.00 81 1016.7
20260903125157 79 342 3.0 5.0 0.00 0.00 0.00 81 1016.7
20260903125002 79 336 4.0 4.0 0.00 0.00 0.00 81 1016.7
20260903124857 79 326 2.0 4.0 0.00 0.00 0.00 81 1016.7
20260903124758 79 333 3.0 3.0 0.00 0.00 0.00 81 1016.7
20260903124658 79 342 1.0 2.0 0.00 0.00 0.00 81 1016.7
20260903124557 79 350 2.0 2.0 0.00 0.00 0.00 81 1016.7
20260903124500 79 340 0.0 2.0 0.00 0.00 0.00 82 1016.7
20260903124257 79 323 0.0 2.0 0.00 0.00 0.00 82 1016.6
20260903124157 79 328 0.0 2.0 0.00 0.00 0.00 82 1016.7
20260903124058 79 262 0.0 3.0 0.00 0.00 0.00 82 1016.7
20260903123757 78 302 0.0 3.0 0.00 0.00 0.00 83 1016.7
20260903123657 78 316 0.0 3.0 0.00 0.00 0.00 83 1016.6
20260903123558 78 314 1.0 3.0 0.00 0.00 0.00 83 1016.6
20260903123357 78 287 0.0 3.0 0.00 0.00 0.00 83 1016.6
20260903123258 78 293 2.0 3.0 0.00 0.00 0.00 83 1016.6
20260903123158 78 293 2.0 3.0 0.00 0.00 0.00 84 1016.5
20260903122959 78 307 1.0 3.0 0.00 0.00 0.00 84 1016.6
20260903122857 77 288 2.0 3.0 0.00 0.00 0.00 84 1016.6
20260903122658 77 317 1.0 3.0 0.00 0.00 0.00 84 1016.5
20260903122559 77 298 2.0 3.0 0.00 0.00 0.00 84 1016.5
20260903122459 77 289 1.0 3.0 0.00 0.00 0.00 84 1016.5
20260903122358 77 304 0.0 3.0 0.00 0.00 0.00 84 1016.5
20260903122259 77 301 2.0 3.0 0.00 0.00 0.00 84 1016.4
20260903122159 77 314 3.0 3.0 0.00 0.00 0.00 85 1016.5
20260903122058 77 297 3.0 3.0 0.00 0.00 0.00 85 1016.5
20260903121858 77 319 3.0 3.0 0.00 0.00 0.00 85 1016.4
20260903121757 77 303 2.0 3.0 0.00 0.00 0.00 85 1016.5
20260903121658 77 295 2.0 3.0 0.00 0.00 0.00 85 1016.4
20260903121558 76 303 2.0 4.0 0.00 0.00 0.00 85 1016.4
20260903121459 76 319 3.0 4.0 0.00 0.00 0.00 85 1016.4
20260903121357 76 314 3.0 4.0 0.00 0.00 0.00 85 1016.4
20260903121258 76 328 3.0 4.0 0.00 0.00 0.00 85 1016.4
20260903121158 76 312 2.0 4.0 0.00 0.00 0.00 86 1016.3
20260903121058 76 317 1.0 4.0 0.00 0.00 0.00 86 1016.4
20260903120858 76 345 2.0 4.0 0.00 0.00 0.00 86 1016.3
20260903120758 76 331 2.0 4.0 0.00 0.00 0.00 86 1016.3
20260903120658 76 328 2.0 3.0 0.00 0.00 0.00 86 1016.3
20260903120558 76 347 3.0 3.0 0.00 0.00 0.00 86 1016.3
20260903120357 76 333 2.0 3.0 0.00 0.00 0.00 86 1016.3
20260903120257 76 347 3.0 3.0 0.00 0.00 0.00 86 1016.2
20260903120158 76 354 2.0 3.0 0.00 0.00 0.00 86 1016.3
20260903120057 75 333 2.0 3.0 0.00 0.00 0.00 86 1016.3
20260903120000 75 333 3.0 3.0 0.00 0.00 0.00 87 1016.3
20260903115857 75 331 2.0 3.0 0.00 0.00 0.00 87 1016.3
20260903115757 75 319 2.0 3.0 0.00 0.00 0.00 87 1016.2
20260903115658 75 335 1.0 3.0 0.00 0.00 0.00 87 1016.3
20260903115557 75 316 2.0 3.0 0.00 0.00 0.00 87 1016.2
20260903115501 75 340 2.0 3.0 0.00 0.00 0.00 87 1016.2
20260903115357 75 316 2.0 3.0 0.00 0.00 0.00 87 1016.3
20260903115258 75 333 2.0 3.0 0.00 0.00 0.00 87 1016.3
20260903115157 75 309 1.0 3.0 0.00 0.00 0.00 87 1016.3
20260903115057 75 309 0.0 3.0 0.00 0.00 0.00 87 1016.2
20260903115002 75 321 1.0 3.0 0.00 0.00 0.00 87 1016.3
20260903114857 75 326 0.0 3.0 0.00 0.00 0.00 87 1016.3
20260903114759 75 328 2.0 3.0 0.00 0.00 0.00 87 1016.2
20260903114658 75 326 2.0 3.0 0.00 0.00 0.00 87 1016.2
20260903114500 75 321 2.0 3.0 0.00 0.00 0.00 87 1016.2
20260903114358 75 333 2.0 3.0 0.00 0.00 0.00 87 1016.1
20260903114258 75 321 3.0 3.0 0.00 0.00 0.00 87 1016.1
20260903114058 75 335 2.0 3.0 0.00 0.00 0.00 87 1016.1
20260903114003 75 319 2.0 3.0 0.00 0.00 0.00 86 1016.2
20260903113858 75 323 2.0 3.0 0.00 0.00 0.00 87 1016.2
20260903113757 75 323 2.0 3.0 0.00 0.00 0.00 87 1016.1
20260903113358 75 305 2.0 3.0 0.00 0.00 0.00 87 1016.1
20260903113258 75 316 2.0 2.0 0.00 0.00 0.00 86 1016.1
20260903113157 75 319 2.0 2.0 0.00 0.00 0.00 87 1016.1
20260903113057 75 321 2.0 2.0 0.00 0.00 0.00 86 1016.1
20260903113000 75 317 0.0 2.0 0.00 0.00 0.00 86 1016.1
20260903112857 75 317 1.0 2.0 0.00 0.00 0.00 86 1016.0
20260903112657 75 321 2.0 2.0 0.00 0.00 0.00 86 1016.1
20260903112559 75 345 0.0 2.0 0.00 0.00 0.00 86 1016.1
20260903112459 75 345 0.0 2.0 0.00 0.00 0.00 86 1016.1
20260903112358 75 338 0.0 2.0 0.00 0.00 0.00 86 1016.1
20260903112058 75 337 0.0 2.0 0.00 0.00 0.00 86 1016.0
20260903112002 75 326 0.0 2.0 0.00 0.00 0.00 86 1016.0
20260903111658 75 1 0.0 3.0 0.00 0.00 0.00 86 1016.0
20260903111558 75 333 0.0 3.0 0.00 0.00 0.00 86 1016.0
20260903111500 75 340 0.0 3.0 0.00 0.00 0.00 86 1016.0
20260903111358 75 335 0.0 3.0 0.00 0.00 0.00 86 1016.0
20260903111258 75 345 0.0 3.0 0.00 0.00 0.00 86 1015.9
20260903111158 75 330 1.0 3.0 0.00 0.00 0.00 86 1015.9
20260903111057 75 344 1.0 3.0 0.00 0.00 0.00 86 1015.9
20260903111000 75 335 1.0 3.0 0.00 0.00 0.00 86 1015.9
20260903110859 75 346 2.0 3.0 0.00 0.00 0.00 86 1015.9
20260903110758 75 11 0.0 3.0 0.00 0.00 0.00 86 1016.0
20260903110657 75 354 1.0 3.0 0.00 0.00 0.00 86 1015.9
20260903110558 75 321 0.0 3.0 0.00 0.00 0.00 86 1015.8
20260903110458 75 323 0.0 3.0 0.00 0.00 0.00 86 1015.9
20260903110358 75 353 2.0 3.0 0.00 0.00 0.00 86 1015.8
20260903110258 75 314 2.0 3.0 0.00 0.00 0.00 86 1015.8
20260903105958 75 330 1.0 3.0 0.00 0.00 0.00 85 1015.9
20260903105857 75 319 1.0 3.0 0.00 0.00 0.00 85 1015.8
20260903105756 75 328 2.0 3.0 0.00 0.00 0.00 85 1015.7
20260903105657 75 335 1.0 3.0 0.00 0.00 0.00 85 1015.7
20260903105556 75 331 0.0 3.0 0.00 0.00 0.00 85 1015.8
20260903105458 75 351 2.0 3.0 0.00 0.00 0.00 85 1015.7
20260903105256 75 342 2.0 3.0 0.00 0.00 0.00 85 1015.7
20260903105057 75 4 2.0 3.0 0.00 0.00 0.00 85 1015.6
20260903104959 75 1 2.0 3.0 0.00 0.00 0.00 85 1015.7
20260903104856 75 356 2.0 3.0 0.00 0.00 0.00 85 1015.7
20260903104756 75 344 0.0 3.0 0.00 0.00 0.00 85 1015.8
20260903104556 76 335 0.0 3.0 0.00 0.00 0.00 85 1015.8
20260903104457 76 353 2.0 3.0 0.00 0.00 0.00 85 1015.8
20260903104356 76 330 2.0 3.0 0.00 0.00 0.00 85 1015.8
20260903104255 76 349 1.0 3.0 0.00 0.00 0.00 85 1015.8
20260903104156 76 328 2.0 3.0 0.00 0.00 0.00 85 1015.7
20260903103856 76 316 0.0 3.0 0.00 0.00 0.00 85 1015.7
20260903103656 76 314 2.0 3.0 0.00 0.00 0.00 85 1015.7
20260903103557 76 326 2.0 3.0 0.00 0.00 0.00 85 1015.7
20260903103457 76 330 0.0 3.0 0.00 0.00 0.00 85 1015.7
20260903103356 76 331 0.0 3.0 0.00 0.00 0.00 85 1015.7
20260903103257 76 338 2.0 3.0 0.00 0.00 0.00 85 1015.6
20260903103157 76 349 1.0 3.0 0.00 0.00 0.00 85 1015.6
20260903103057 76 346 2.0 3.0 0.00 0.00 0.00 85 1015.6
20260903102857 76 352 2.0 3.0 0.00 0.00 0.00 85 1015.6
20260903102556 76 333 3.0 3.0 0.00 0.00 0.00 85 1015.6
20260903102458 76 338 2.0 2.0 0.00 0.00 0.00 85 1015.6
20260903102358 76 326 1.0 2.0 0.00 0.00 0.00 85 1015.6
20260903102156 76 338 0.0 2.0 0.00 0.00 0.00 85 1015.6
20260903102057 76 317 0.0 2.0 0.00 0.00 0.00 85 1015.6
20260903102000 76 326 1.0 2.0 0.00 0.00 0.00 85 1015.6
20260903101856 76 310 2.0 2.0 0.00 0.00 0.00 85 1015.6
20260903101756 76 307 0.0 2.0 0.00 0.00 0.00 85 1015.6
20260903101656 76 337 0.0 3.0 0.00 0.00 0.00 85 1015.6
20260903101457 76 330 0.0 3.0 0.00 0.00 0.00 85 1015.5
20260903101356 76 347 1.0 3.0 0.00 0.00 0.00 84 1015.6
20260903101257 76 337 2.0 3.0 0.00 0.00 0.00 84 1015.5
20260903101156 76 331 2.0 3.0 0.00 0.00 0.00 84 1015.6
20260903101057 76 349 1.0 3.0 0.00 0.00 0.00 84 1015.5
20260903100958 76 347 1.0 3.0 0.00 0.00 0.00 84 1015.5
20260903100857 76 349 2.0 3.0 0.00 0.00 0.00 84 1015.6
20260903100757 76 358 0.0 2.0 0.00 0.00 0.00 84 1015.6
20260903100656 76 356 1.0 2.0 0.00 0.00 0.00 84 1015.4
20260903100556 76 4 0.0 2.0 0.00 0.00 0.00 84 1015.5
20260903100458 76 335 1.0 2.0 0.00 0.00 0.00 84 1015.5
20260903100356 76 335 0.0 2.0 0.00 0.00 0.00 84 1015.5
20260903100257 76 19 0.0 3.0 0.00 0.00 0.00 84 1015.5
20260903100156 76 1 0.0 3.0 0.00 0.00 0.00 84 1015.5
20260903100057 76 24 0.0 3.0 0.00 0.00 0.00 84 1015.4
20260903100002 76 349 0.0 3.0 0.00 0.00 0.00 84 1015.4
20260903095858 76 352 0.0 3.0 0.00 0.00 0.00 84 1015.5
20260903095557 76 5 2.0 3.0 0.00 0.00 0.00 84 1015.4
20260903095459 76 354 2.0 3.0 0.00 0.00 0.00 84 1015.3
20260903095357 76 321 2.0 2.0 0.00 0.00 0.00 84 1015.3
20260903095258 76 330 2.0 2.0 0.00 0.00 0.00 84 1015.4
20260903095159 76 337 0.0 2.0 0.00 0.00 0.00 84 1015.4
20260903095058 76 338 0.0 2.0 0.00 0.00 0.00 84 1015.3
20260903095002 76 342 1.0 2.0 0.00 0.00 0.00 84 1015.3
20260903094857 76 1 0.0 2.0 0.00 0.00 0.00 84 1015.4
20260903094757 76 347 1.0 3.0 0.00 0.00 0.00 84 1015.4
20260903094657 76 347 1.0 3.0 0.00 0.00 0.00 84 1015.4
20260903094558 76 335 1.0 3.0 0.00 0.00 0.00 84 1015.4
20260903094500 76 352 1.0 3.0 0.00 0.00 0.00 84 1015.3
20260903094257 76 356 0.0 3.0 0.00 0.00 0.00 84 1015.4
20260903094157 76 333 2.0 3.0 0.00 0.00 0.00 84 1015.4
20260903094057 76 328 0.0 3.0 0.00 0.00 0.00 84 1015.4
20260903093959 76 319 0.0 3.0 0.00 0.00 0.00 84 1015.4
20260903093857 76 335 2.0 3.0 0.00 0.00 0.00 84 1015.4
20260903093757 76 349 2.0 3.0 0.00 0.00 0.00 84 1015.5
20260903093657 76 335 2.0 3.0 0.00 0.00 0.00 84 1015.5
20260903093558 76 317 2.0 3.0 0.00 0.00 0.00 84 1015.4
20260903093459 76 330 2.0 3.0 0.00 0.00 0.00 84 1015.4
20260903093358 76 309 2.0 3.0 0.00 0.00 0.00 84 1015.4
20260903093257 76 321 2.0 3.0 0.00 0.00 0.00 84 1015.5
20260903093156 76 330 2.0 3.0 0.00 0.00 0.00 84 1015.4
20260903093057 76 310 2.0 3.0 0.00 0.00 0.00 84 1015.4
20260903092959 76 333 2.0 3.0 0.00 0.00 0.00 84 1015.4
20260903092857 76 319 1.0 3.0 0.00 0.00 0.00 84 1015.4
20260903092658 76 321 1.0 3.0 0.00 0.00 0.00 84 1015.4
20260903092557 76 312 3.0 3.0 0.00 0.00 0.00 84 1015.3
20260903092500 76 326 1.0 2.0 0.00 0.00 0.00 84 1015.4
20260903092259 76 316 2.0 2.0 0.00 0.00 0.00 84 1015.4
20260903092001 76 337 2.0 2.0 0.00 0.00 0.00 84 1015.3
20260903091857 76 317 2.0 2.0 0.00 0.00 0.00 84 1015.4
20260903091758 76 311 1.0 2.0 0.00 0.00 0.00 84 1015.4
20260903091657 76 326 1.0 2.0 0.00 0.00 0.00 84 1015.4
20260903091459 76 307 0.0 2.0 0.00 0.00 0.00 84 1015.5
20260903091357 76 286 1.0 2.0 0.00 0.00 0.00 84 1015.4
20260903091158 76 319 0.0 2.0 0.00 0.00 0.00 84 1015.5
20260903091057 76 311 0.0 2.0 0.00 0.00 0.00 84 1015.4
20260903091001 76 316 0.0 2.0 0.00 0.00 0.00 84 1015.4
20260903090857 76 319 2.0 2.0 0.00 0.00 0.00 84 1015.4
20260903090757 76 324 1.0 2.0 0.00 0.00 0.00 84 1015.4
20260903090657 76 326 0.0 3.0 0.00 0.00 0.00 84 1015.4
20260903090557 76 307 0.0 3.0 0.00 0.00 0.00 84 1015.4
20260903090458 76 314 2.0 3.0 0.00 0.00 0.00 84 1015.4
20260903090257 76 319 1.0 3.0 0.00 0.00 0.00 84 1015.4
20260903090057 76 305 1.0 3.0 0.00 0.00 0.00 84 1015.3
20260903090002 76 314 0.0 3.0 0.00 0.00 0.00 84 1015.3
20260903085857 76 310 1.0 3.0 0.00 0.00 0.00 84 1015.5
20260903085758 76 307 1.0 3.0 0.00 0.00 0.00 84 1015.4
20260903085658 76 305 0.0 2.0 0.00 0.00 0.00 84 1015.5
20260903085557 76 314 1.0 2.0 0.00 0.00 0.00 84 1015.5
20260903085500 76 295 2.0 2.0 0.00 0.00 0.00 84 1015.4
20260903085358 76 328 0.0 2.0 0.00 0.00 0.00 84 1015.4
20260903085258 76 321 0.0 2.0 0.00 0.00 0.00 84 1015.4
20260903085056 76 316 0.0 2.0 0.00 0.00 0.00 83 1015.4
20260903085000 76 326 1.0 2.0 0.00 0.00 0.00 83 1015.4
20260903084858 76 316 0.0 2.0 0.00 0.00 0.00 83 1015.4
20260903084758 76 316 0.0 2.0 0.00 0.00 0.00 83 1015.4
20260903084658 76 307 2.0 2.0 0.00 0.00 0.00 83 1015.4
20260903084557 76 302 1.0 2.0 0.00 0.00 0.00 83 1015.4
20260903084500 76 340 1.0 2.0 0.00 0.00 0.00 83 1015.3
20260903084357 76 324 2.0 2.0 0.00 0.00 0.00 83 1015.3
20260903084258 76 316 0.0 3.0 0.00 0.00 0.00 83 1015.3
20260903084157 76 352 0.0 3.0 0.00 0.00 0.00 83 1015.4
20260903084058 76 328 0.0 3.0 0.00 0.00 0.00 83 1015.3
20260903083959 76 319 2.0 3.0 0.00 0.00 0.00 83 1015.3
20260903083858 76 311 1.0 3.0 0.00 0.00 0.00 83 1015.4
20260903083758 76 310 1.0 3.0 0.00 0.00 0.00 83 1015.3
20260903083657 76 331 2.0 3.0 0.00 0.00 0.00 83 1015.3
20260903083557 76 347 2.0 3.0 0.00 0.00 0.00 83 1015.3
20260903083500 76 340 2.0 3.0 0.00 0.00 0.00 83 1015.4
20260903083357 76 323 2.0 3.0 0.00 0.00 0.00 83 1015.4
20260903083057 76 316 2.0 3.0 0.00 0.00 0.00 83 1015.4
20260903083000 76 316 2.0 3.0 0.00 0.00 0.00 83 1015.4
20260903082858 76 321 2.0 3.0 0.00 0.00 0.00 83 1015.4
20260903082657 76 314 2.0 3.0 0.00 0.00 0.00 83 1015.3
20260903082557 76 295 2.0 3.0 0.00 0.00 0.00 83 1015.5
20260903082458 76 314 2.0 3.0 0.00 0.00 0.00 83 1015.4
20260903082357 76 311 2.0 3.0 0.00 0.00 0.00 83 1015.4
20260903082257 76 307 1.0 3.0 0.00 0.00 0.00 83 1015.4
20260903082059 76 319 2.0 3.0 0.00 0.00 0.00 83 1015.4
20260903082000 76 302 2.0 3.0 0.00 0.00 0.00 83 1015.4
20260903081857 76 323 2.0 3.0 0.00 0.00 0.00 83 1015.4
20260903081758 76 316 2.0 3.0 0.00 0.00 0.00 83 1015.4
20260903081658 77 307 2.0 3.0 0.00 0.00 0.00 82 1015.5
20260903081557 77 311 2.0 3.0 0.00 0.00 0.00 83 1015.4
20260903081459 77 293 2.0 3.0 0.00 0.00 0.00 82 1015.4
20260903081157 77 307 1.0 3.0 0.00 0.00 0.00 82 1015.4
20260903081057 77 310 0.0 3.0 0.00 0.00 0.00 82 1015.4
20260903081000 77 316 2.0 3.0 0.00 0.00 0.00 82 1015.4
20260903080857 77 293 1.0 3.0 0.00 0.00 0.00 82 1015.4
20260903080758 77 316 2.0 3.0 0.00 0.00 0.00 82 1015.5
20260903080658 77 319 1.0 3.0 0.00 0.00 0.00 82 1015.5
20260903080557 77 314 1.0 3.0 0.00 0.00 0.00 82 1015.4
20260903080458 77 297 2.0 3.0 0.00 0.00 0.00 82 1015.4
20260903080258 77 300 2.0 3.0 0.00 0.00 0.00 82 1015.4
20260903080159 77 323 1.0 3.0 0.00 0.00 0.00 82 1015.4
20260903080002 77 302 2.0 3.0 0.00 0.00 0.00 82 1015.5
20260903075558 77 293 2.0 3.0 0.00 0.00 0.00 81 1015.4
20260903075459 77 295 2.0 3.0 0.00 0.00 0.00 81 1015.5
20260903075357 77 284 2.0 3.0 0.00 0.00 0.00 81 1015.4
20260903075258 77 295 2.0 3.0 0.00 0.00 0.00 81 1015.5
20260903075058 77 288 2.0 3.0 0.00 0.00 0.00 81 1015.5
20260903075001 77 295 2.0 3.0 0.00 0.00 0.00 81 1015.4
20260903074857 77 297 2.0 3.0 0.00 0.00 0.00 81 1015.4
20260903074757 77 296 1.0 3.0 0.00 0.00 0.00 81 1015.5
20260903074657 77 307 2.0 3.0 0.00 0.00 0.00 81 1015.5
20260903074558 77 276 2.0 3.0 0.00 0.00 0.00 81 1015.5
20260903074458 77 302 0.0 2.0 0.00 0.00 0.00 81 1015.5
20260903074257 77 291 1.0 2.0 0.00 0.00 0.00 81 1015.5
20260903074157 77 295 2.0 2.0 0.00 0.00 0.00 81 1015.5
20260903074058 77 304 1.0 2.0 0.00 0.00 0.00 81 1015.6
20260903074000 77 310 1.0 2.0 0.00 0.00 0.00 81 1015.6
20260903073757 77 319 0.0 2.0 0.00 0.00 0.00 81 1015.7
20260903073558 77 307 1.0 2.0 0.00 0.00 0.00 81 1015.7
20260903073459 77 309 0.0 2.0 0.00 0.00 0.00 81 1015.7
20260903073357 77 310 1.0 2.0 0.00 0.00 0.00 81 1015.7
20260903073257 77 314 2.0 2.0 0.00 0.00 0.00 81 1015.6
20260903073157 77 316 0.0 2.0 0.00 0.00 0.00 81 1015.7
20260903073058 77 321 1.0 2.0 0.00 0.00 0.00 81 1015.7
20260903073000 77 307 2.0 2.0 0.00 0.00 0.00 81 1015.7
20260903072857 77 307 0.0 2.0 0.00 0.00 0.00 80 1015.7
20260903072757 77 326 2.0 2.0 0.00 0.00 0.00 80 1015.7
20260903072658 77 305 1.0 2.0 0.00 0.00 0.00 80 1015.7
20260903072459 77 310 0.0 2.0 0.00 0.00 0.00 80 1015.7
20260903072359 78 329 0.0 2.0 0.00 0.00 0.00 80 1015.7
20260903072258 78 333 1.0 2.0 0.00 0.00 0.00 80 1015.7
20260903072059 78 330 1.0 2.0 0.00 0.00 0.00 80 1015.7
20260903072000 78 316 1.0 2.0 0.00 0.00 0.00 80 1015.6
20260903071858 78 319 1.0 2.0 0.00 0.00 0.00 79 1015.6
20260903071658 78 309 1.0 2.0 0.00 0.00 0.00 79 1015.7
20260903071558 78 307 1.0 2.0 0.00 0.00 0.00 79 1015.7
20260903071500 78 317 0.0 2.0 0.00 0.00 0.00 79 1015.6
20260903071358 78 328 0.0 2.0 0.00 0.00 0.00 79 1015.7
20260903071057 78 319 2.0 2.0 0.00 0.00 0.00 79 1015.7
20260903070959 78 328 0.0 2.0 0.00 0.00 0.00 79 1015.7
20260903070859 78 303 1.0 2.0 0.00 0.00 0.00 79 1015.7
20260903070757 78 309 0.0 2.0 0.00 0.00 0.00 79 1015.8
20260903070658 78 319 0.0 2.0 0.00 0.00 0.00 79 1015.8
20260903070158 78 319 2.0 3.0 0.00 0.00 0.00 79 1015.7
20260903065757 78 338 2.0 3.0 0.00 0.00 0.00 78 1015.8
20260903065657 78 345 1.0 3.0 0.00 0.00 0.00 78 1015.7
20260903065557 78 342 0.0 3.0 0.00 0.00 0.00 78 1015.8
20260903065458 78 335 2.0 3.0 0.00 0.00 0.00 78 1015.9
20260903065357 79 333 2.0 3.0 0.00 0.00 0.00 78 1015.8
20260903065257 79 342 2.0 3.0 0.00 0.00 0.00 78 1015.9
20260903065159 79 323 0.0 2.0 0.00 0.00 0.00 78 1015.9
20260903064959 79 307 0.0 2.0 0.00 0.00 0.00 78 1015.9
20260903064857 79 342 2.0 2.0 0.00 0.00 0.00 77 1015.9
20260903064657 79 323 0.0 2.0 0.00 0.00 0.00 77 1016.0
20260903064459 79 324 0.0 2.0 0.00 0.00 0.00 77 1015.9
20260903064358 79 324 0.0 2.0 0.00 0.00 0.00 77 1015.9
20260903064258 79 326 0.0 2.0 0.00 0.00 0.00 77 1016.0
20260903064157 79 293 0.0 2.0 0.00 0.00 0.00 76 1016.0
20260903064057 79 307 0.0 2.0 0.00 0.00 0.00 77 1016.0
20260903063959 79 309 0.0 2.0 0.00 0.00 0.00 77 1016.0
20260903063857 79 309 0.0 2.0 0.00 0.00 0.00 76 1016.0
20260903063658 79 274 0.0 2.0 0.00 0.00 0.00 76 1015.9
20260903063558 79 340 0.0 2.0 0.00 0.00 0.00 76 1015.9
20260903063500 79 293 0.0 3.0 0.00 0.00 0.00 76 1015.9
20260903063357 79 288 1.0 3.0 0.00 0.00 0.00 76 1016.0
20260903063256 79 305 0.0 3.0 0.00 0.00 0.00 76 1016.0
20260903063158 79 304 0.0 3.0 0.00 0.00 0.00 76 1015.9
20260903063058 79 288 0.0 3.0 0.00 0.00 0.00 76 1016.0
20260903062959 79 309 0.0 3.0 0.00 0.00 0.00 76 1016.0
20260903062857 80 321 1.0 3.0 0.00 0.00 0.00 76 1016.0
20260903062758 80 307 0.0 3.0 0.00 0.00 0.00 76 1016.0
20260903062659 80 288 0.0 3.0 0.00 0.00 0.00 76 1016.0
20260903062557 80 352 3.0 3.0 0.00 0.00 0.00 76 1016.0
20260903062458 80 329 0.0 2.0 0.00 0.00 0.00 76 1016.0
20260903062357 80 329 0.0 2.0 0.00 0.00 0.00 76 1016.0
20260903062257 80 333 0.0 2.0 0.00 0.00 0.00 76 1016.0
20260903062058 80 319 0.0 2.0 0.00 0.00 0.00 76 1016.0
20260903061959 80 293 1.0 2.0 0.00 0.00 0.00 76 1016.0
20260903061857 80 328 0.0 2.0 0.00 0.00 0.00 75 1016.1
20260903061758 80 293 0.0 2.0 0.00 0.00 0.00 75 1016.1
20260903061657 80 302 1.0 2.0 0.00 0.00 0.00 75 1016.1
20260903061558 80 300 0.0 2.0 0.00 0.00 0.00 75 1016.1
20260903061358 80 323 0.0 3.0 0.00 0.00 0.00 75 1016.1
20260903061257 80 286 0.0 3.0 0.00 0.00 0.00 75 1016.1
20260903061157 80 300 0.0 3.0 0.00 0.00 0.00 75 1016.1
20260903061000 80 287 1.0 3.0 0.00 0.00 0.00 75 1016.1
20260903060858 80 319 2.0 3.0 0.00 0.00 0.00 75 1016.1
20260903060659 80 336 1.0 4.0 0.00 0.00 0.00 75 1016.1
20260903060358 80 321 2.0 4.0 0.00 0.00 0.00 75 1016.1
20260903060258 80 329 2.0 4.0 0.00 0.00 0.00 75 1016.1
20260903060058 80 314 0.0 4.0 0.00 0.00 0.00 75 1016.2
20260903060002 80 317 2.0 4.0 0.00 0.00 0.00 75 1016.2
20260903055900 80 279 2.0 4.0 0.00 0.00 0.00 75 1016.3
20260903055800 80 360 3.0 4.0 0.00 0.00 0.00 75 1016.3
20260903055659 80 342 1.0 3.0 0.00 0.00 0.00 75 1016.4
20260903055600 80 326 2.0 3.0 0.00 0.00 0.00 76 1016.3
20260903055500 80 286 2.0 3.0 0.00 0.00 0.00 76 1016.4
20260903055358 80 328 0.0 3.0 0.00 0.00 0.00 76 1016.3
20260903055159 80 347 2.0 3.0 0.00 0.00 0.00 76 1016.3
20260903055003 80 326 1.0 3.0 0.00 0.00 0.00 76 1016.4
20260903054900 80 356 2.0 2.0 0.00 0.00 0.00 76 1016.3
20260903054659 80 299 2.0 2.0 0.00 0.00 0.00 76 1016.3
20260903054501 80 294 0.0 2.0 0.00 0.00 0.00 76 1016.3
20260903054359 80 308 2.0 2.0 0.00 0.00 0.00 76 1016.3
20260903054300 80 305 0.0 2.0 0.00 0.00 0.00 76 1016.2
20260903054200 80 303 0.0 2.0 0.00 0.00 0.00 76 1016.3
20260903054059 80 322 1.0 3.0 0.00 0.00 0.00 76 1016.3
20260903054004 80 317 0.0 3.0 0.00 0.00 0.00 76 1016.3
20260903053859 80 285 0.0 3.0 0.00 0.00 0.00 76 1016.3
20260903053759 80 333 0.0 3.0 0.00 0.00 0.00 76 1016.4
20260903053659 80 326 0.0 3.0 0.00 0.00 0.00 76 1016.4
20260903053559 80 296 0.0 3.0 0.00 0.00 0.00 77 1016.4
20260903053500 80 296 0.0 3.0 0.00 0.00 0.00 76 1016.4
20260903053159 79 40 0.0 3.0 0.00 0.00 0.00 77 1016.3
20260903053059 79 335 0.0 3.0 0.00 0.00 0.00 78 1016.3
20260903052859 79 335 1.0 3.0 0.00 0.00 0.00 78 1016.3
20260903052759 79 282 0.0 3.0 0.00 0.00 0.00 79 1016.3
20260903052659 79 293 1.0 3.0 0.00 0.00 0.00 79 1016.2
20260903052559 79 317 0.0 3.0 0.00 0.00 0.00 79 1016.2
20260903052503 79 307 2.0 3.0 0.00 0.00 0.00 79 1016.2
20260903052359 79 324 2.0 3.0 0.00 0.00 0.00 79 1016.2
20260903052300 79 303 2.0 3.0 0.00 0.00 0.00 79 1016.2
20260903052159 79 263 2.0 3.0 0.00 0.00 0.00 79 1016.1
20260903052059 79 329 0.0 3.0 0.00 0.00 0.00 79 1016.1
20260903052003 79 311 0.0 3.0 0.00 0.00 0.00 79 1016.1
20260903051900 79 316 2.0 3.0 0.00 0.00 0.00 79 1016.1
20260903051759 79 311 0.0 3.0 0.00 0.00 0.00 79 1016.1
20260903051659 79 314 2.0 3.0 0.00 0.00 0.00 79 1016.1
20260903051559 79 316 1.0 3.0 0.00 0.00 0.00 79 1016.1
20260903051500 79 317 2.0 3.0 0.00 0.00 0.00 79 1016.0
20260903051359 79 309 2.0 3.0 0.00 0.00 0.00 79 1016.0
20260903051259 79 303 2.0 3.0 0.00 0.00 0.00 79 1016.0
20260903051159 79 307 2.0 3.0 0.00 0.00 0.00 79 1016.1
20260903051059 79 335 2.0 3.0 0.00 0.00 0.00 79 1016.0
20260903050759 79 319 2.0 2.0 0.00 0.00 0.00 78 1016.0
20260903050659 79 340 2.0 2.0 0.00 0.00 0.00 78 1016.0
20260903050559 79 309 0.0 3.0 0.00 0.00 0.00 78 1016.0
20260903050502 79 328 2.0 3.0 0.00 0.00 0.00 78 1016.0
20260903050159 79 304 2.0 3.0 0.00 0.00 0.00 78 1016.0
20260903050100 79 314 2.0 3.0 0.00 0.00 0.00 78 1016.0
20260903050007 80 287 1.0 3.0 0.00 0.00 0.00 78 1016.0
20260903045900 79 304 2.0 3.0 0.00 0.00 0.00 78 1016.0
20260903045759 79 305 2.0 3.0 0.00 0.00 0.00 78 1016.1
20260903045700 80 294 2.0 3.0 0.00 0.00 0.00 78 1016.1
20260903045600 80 302 3.0 3.0 0.00 0.00 0.00 78 1016.0
20260903045501 80 307 2.0 3.0 0.00 0.00 0.00 78 1016.0
20260903045300 80 279 2.0 3.0 0.00 0.00 0.00 78 1016.0
20260903045159 80 319 2.0 3.0 0.00 0.00 0.00 78 1016.0
20260903045100 80 295 2.0 3.0 0.00 0.00 0.00 78 1016.0
20260903045002 80 288 3.0 3.0 0.00 0.00 0.00 78 1016.0
20260903044859 80 301 2.0 3.0 0.00 0.00 0.00 78 1016.0
20260903044800 80 304 2.0 3.0 0.00 0.00 0.00 78 1016.0
20260903044700 80 311 2.0 3.0 0.00 0.00 0.00 78 1016.0
20260903044559 80 307 2.0 3.0 0.00 0.00 0.00 78 1016.0
20260903044500 80 300 2.0 3.0 0.00 0.00 0.00 78 1015.9
20260903044359 80 311 2.0 3.0 0.00 0.00 0.00 78 1015.9
20260903044159 80 290 2.0 3.0 0.00 0.00 0.00 77 1015.9
20260903044059 80 304 2.0 3.0 0.00 0.00 0.00 77 1015.9
20260903044003 80 319 2.0 3.0 0.00 0.00 0.00 77 1016.0
20260903043900 80 304 2.0 3.0 0.00 0.00 0.00 77 1016.0
20260903043759 80 316 2.0 3.0 0.00 0.00 0.00 78 1016.0
20260903043659 80 289 2.0 3.0 0.00 0.00 0.00 77 1016.0
20260903043600 80 296 2.0 3.0 0.00 0.00 0.00 77 1016.0
20260903043503 80 302 2.0 3.0 0.00 0.00 0.00 77 1016.1
20260903043359 80 294 2.0 3.0 0.00 0.00 0.00 77 1016.1
20260903043259 80 295 0.0 3.0 0.00 0.00 0.00 77 1016.0
20260903043200 80 311 2.0 3.0 0.00 0.00 0.00 77 1016.0
20260903043059 80 317 1.0 3.0 0.00 0.00 0.00 77 1016.2
20260903043003 80 324 2.0 3.0 0.00 0.00 0.00 77 1016.0
20260903042900 80 300 2.0 3.0 0.00 0.00 0.00 77 1016.0
20260903042800 80 314 2.0 3.0 0.00 0.00 0.00 77 1016.0
20260903042700 80 314 3.0 3.0 0.00 0.00 0.00 77 1015.9
20260903042600 80 319 1.0 3.0 0.00 0.00 0.00 77 1015.9
20260903042400 80 301 1.0 3.0 0.00 0.00 0.00 77 1015.9
20260903042259 80 295 2.0 3.0 0.00 0.00 0.00 77 1016.0
20260903042159 80 314 2.0 3.0 0.00 0.00 0.00 77 1016.0
20260903042058 80 315 2.0 3.0 0.00 0.00 0.00 77 1015.9
20260903042003 80 305 3.0 3.0 0.00 0.00 0.00 77 1016.0
20260903041859 80 294 2.0 3.0 0.00 0.00 0.00 77 1015.9
20260903041700 80 295 2.0 3.0 0.00 0.00 0.00 77 1015.9
20260903041503 80 295 2.0 3.0 0.00 0.00 0.00 77 1015.9
20260903041400 80 294 2.0 3.0 0.00 0.00 0.00 77 1015.9
20260903041259 80 300 2.0 3.0 0.00 0.00 0.00 76 1016.0
20260903041159 80 295 2.0 3.0 0.00 0.00 0.00 76 1016.0
20260903041059 81 316 2.0 3.0 0.00 0.00 0.00 76 1015.9
20260903041003 81 316 2.0 2.0 0.00 0.00 0.00 76 1016.0
20260903040859 81 311 2.0 2.0 0.00 0.00 0.00 76 1016.0
20260903040659 81 281 1.0 2.0 0.00 0.00 0.00 76 1015.9
20260903040559 81 293 2.0 2.0 0.00 0.00 0.00 76 1015.9
20260903040502 81 317 2.0 3.0 0.00 0.00 0.00 76 1016.0
20260903040359 81 307 1.0 3.0 0.00 0.00 0.00 76 1016.1
20260903040100 81 317 0.0 3.0 0.00 0.00 0.00 76 1016.0
20260903040003 81 269 0.0 3.0 0.00 0.00 0.00 76 1016.0
20260903035901 81 283 2.0 3.0 0.00 0.00 0.00 76 1016.1
20260903035701 81 285 0.0 3.0 0.00 0.00 0.00 76 1016.0
20260903035559 81 307 2.0 3.0 0.00 0.00 0.00 75 1016.0
20260903035503 81 285 2.0 3.0 0.00 0.00 0.00 75 1016.0
20260903035359 81 285 2.0 3.0 0.00 0.00 0.00 75 1015.9
20260903035259 81 288 2.0 3.0 0.00 0.00 0.00 75 1015.9
20260903035159 81 277 3.0 3.0 0.00 0.00 0.00 75 1015.9
20260903035059 81 297 2.0 3.0 0.00 0.00 0.00 75 1015.9
20260903035003 81 287 0.0 3.0 0.00 0.00 0.00 75 1015.9
20260903034900 81 287 0.0 3.0 0.00 0.00 0.00 75 1015.9
20260903034801 81 287 0.0 3.0 0.00 0.00 0.00 75 1015.9
20260903034659 81 287 0.0 3.0 0.00 0.00 0.00 75 1015.9
20260903034601 81 297 0.0 3.0 0.00 0.00 0.00 75 1015.9
20260903034501 81 295 0.0 3.0 0.00 0.00 0.00 75 1015.9
20260903034300 81 301 2.0 3.0 0.00 0.00 0.00 75 1015.9
20260903034158 81 304 2.0 3.0 0.00 0.00 0.00 74 1015.9
20260903034100 81 286 1.0 3.0 0.00 0.00 0.00 74 1015.9
20260903033900 82 294 1.0 3.0 0.00 0.00 0.00 74 1016.0
20260903033759 82 316 1.0 3.0 0.00 0.00 0.00 74 1015.9
20260903033700 82 302 1.0 3.0 0.00 0.00 0.00 74 1015.9
20260903033558 82 300 1.0 3.0 0.00 0.00 0.00 74 1016.0
20260903033503 82 294 2.0 3.0 0.00 0.00 0.00 74 1015.9
20260903033359 82 300 2.0 3.0 0.00 0.00 0.00 74 1015.9
20260903033259 82 301 2.0 3.0 0.00 0.00 0.00 74 1015.8
20260903033059 82 271 2.0 3.0 0.00 0.00 0.00 74 1015.8
20260903032759 82 286 1.0 3.0 0.00 0.00 0.00 74 1015.8
20260903032658 82 301 2.0 3.0 0.00 0.00 0.00 74 1015.8
20260903032558 82 286 2.0 3.0 0.00 0.00 0.00 74 1015.8
20260903032358 82 301 2.0 3.0 0.00 0.00 0.00 74 1015.9
20260903032258 82 307 2.0 3.0 0.00 0.00 0.00 74 1015.9
20260903032158 82 293 2.0 3.0 0.00 0.00 0.00 74 1015.8
20260903032059 82 304 1.0 3.0 0.00 0.00 0.00 73 1015.9
20260903032003 82 271 2.0 3.0 0.00 0.00 0.00 73 1015.9
20260903031858 82 295 0.0 3.0 0.00 0.00 0.00 73 1015.9
20260903031759 82 293 2.0 3.0 0.00 0.00 0.00 73 1015.9
20260903031659 82 304 1.0 2.0 0.00 0.00 0.00 73 1016.0
20260903031558 82 288 2.0 2.0 0.00 0.00 0.00 73 1016.1
20260903031502 82 302 0.0 2.0 0.00 0.00 0.00 73 1016.0
20260903031358 82 307 2.0 2.0 0.00 0.00 0.00 73 1016.1
20260903031259 82 300 2.0 2.0 0.00 0.00 0.00 73 1016.0
20260903031058 82 312 0.0 2.0 0.00 0.00 0.00 73 1016.0
20260903031002 82 267 0.0 0.0 0.00 0.00 0.00 73 1015.9
20260903030858 83 267 0.0 1.0 0.00 0.00 0.00 73 1015.9
20260903030759 83 267 0.0 2.0 0.00 0.00 0.00 73 1015.9
20260903030658 83 307 0.0 2.0 0.00 0.00 0.00 72 1016.0
20260903030559 83 307 0.0 2.0 0.00 0.00 0.00 72 1015.9
20260903030500 83 307 0.0 2.0 0.00 0.00 0.00 72 1015.9
20260903030358 83 281 0.0 2.0 0.00 0.00 0.00 72 1016.0
20260903030258 83 273 0.0 2.0 0.00 0.00 0.00 72 1016.0
20260903030158 83 294 0.0 2.0 0.00 0.00 0.00 72 1016.0
20260903030059 83 309 0.0 2.0 0.00 0.00 0.00 72 1016.0
20260903030005 83 309 0.0 2.0 0.00 0.00 0.00 72 1016.0
20260903025859 83 308 1.0 2.0 0.00 0.00 0.00 72 1016.0
20260903025800 83 304 0.0 2.0 0.00 0.00 0.00 72 1016.0
20260903025700 83 319 0.0 2.0 0.00 0.00 0.00 72 1015.9
20260903025559 83 305 2.0 2.0 0.00 0.00 0.00 72 1015.9
20260903025259 83 300 1.0 2.0 0.00 0.00 0.00 72 1016.0
20260903025158 83 302 0.0 2.0 0.00 0.00 0.00 72 1015.9
20260903025100 83 308 0.0 2.0 0.00 0.00 0.00 72 1016.0
20260903025003 83 310 1.0 2.0 0.00 0.00 0.00 72 1016.0
20260903024759 83 326 0.0 2.0 0.00 0.00 0.00 72 1016.0
20260903024659 83 333 0.0 2.0 0.00 0.00 0.00 72 1016.0
20260903024600 83 333 0.0 2.0 0.00 0.00 0.00 72 1016.0
20260903024500 83 303 0.0 2.0 0.00 0.00 0.00 72 1015.9
20260903024259 83 300 0.0 2.0 0.00 0.00 0.00 72 1015.9
20260903024158 83 300 0.0 2.0 0.00 0.00 0.00 72 1016.0
20260903024058 83 309 0.0 2.0 0.00 0.00 0.00 72 1016.0
20260903024003 83 307 0.0 2.0 0.00 0.00 0.00 72 1016.0
20260903023900 83 278 0.0 2.0 0.00 0.00 0.00 72 1016.0
20260903023759 83 328 0.0 2.0 0.00 0.00 0.00 72 1016.0
20260903023559 83 284 1.0 2.0 0.00 0.00 0.00 72 1016.0
20260903023359 83 303 0.0 2.0 0.00 0.00 0.00 72 1016.0
20260903023258 83 269 0.0 2.0 0.00 0.00 0.00 72 1015.9
20260903023159 83 269 0.0 2.0 0.00 0.00 0.00 72 1016.0
20260903023059 83 285 0.0 2.0 0.00 0.00 0.00 72 1015.9
20260903022859 83 302 0.0 2.0 0.00 0.00 0.00 72 1015.9
20260903022759 83 312 0.0 2.0 0.00 0.00 0.00 71 1016.0
20260903022659 83 296 1.0 2.0 0.00 0.00 0.00 71 1016.0
20260903022600 83 293 0.0 2.0 0.00 0.00 0.00 71 1015.9
20260903022500 83 303 0.0 2.0 0.00 0.00 0.00 71 1016.0
20260903022259 83 311 0.0 2.0 0.00 0.00 0.00 71 1015.9
20260903022200 83 297 0.0 2.0 0.00 0.00 0.00 71 1015.9
20260903022059 83 296 0.0 2.0 0.00 0.00 0.00 71 1015.9
20260903022003 84 296 0.0 2.0 0.00 0.00 0.00 71 1015.9
20260903021900 84 296 0.0 2.0 0.00 0.00 0.00 71 1015.9
20260903021759 84 303 0.0 2.0 0.00 0.00 0.00 71 1015.9
20260903021659 84 300 0.0 2.0 0.00 0.00 0.00 71 1015.9
20260903021559 84 300 0.0 2.0 0.00 0.00 0.00 71 1015.9
20260903021358 84 296 0.0 2.0 0.00 0.00 0.00 71 1015.9
20260903021300 83 296 0.0 2.0 0.00 0.00 0.00 71 1015.9
20260903021159 84 312 0.0 2.0 0.00 0.00 0.00 71 1015.9
20260903021059 84 305 1.0 2.0 0.00 0.00 0.00 71 1015.9
20260903021003 84 289 0.0 2.0 0.00 0.00 0.00 71 1015.9
20260903020900 84 294 0.0 2.0 0.00 0.00 0.00 71 1015.8
20260903020800 84 290 0.0 2.0 0.00 0.00 0.00 71 1015.9
20260903020659 84 307 1.0 2.0 0.00 0.00 0.00 70 1015.8
20260903020559 84 316 2.0 2.0 0.00 0.00 0.00 70 1015.8
20260903020503 84 273 0.0 2.0 0.00 0.00 0.00 70 1015.8
20260903020200 84 273 0.0 2.0 0.00 0.00 0.00 70 1015.8
20260903020059 84 273 0.0 2.0 0.00 0.00 0.00 70 1015.9
20260903020003 84 296 0.0 2.0 0.00 0.00 0.00 70 1015.9
20260903015859 84 282 0.0 2.0 0.00 0.00 0.00 69 1015.9
20260903015759 84 282 0.0 2.0 0.00 0.00 0.00 69 1015.8
20260903015559 84 303 0.0 2.0 0.00 0.00 0.00 69 1015.8
20260903015502 84 303 0.0 2.0 0.00 0.00 0.00 69 1015.8
20260903015359 84 303 0.0 2.0 0.00 0.00 0.00 69 1015.8
20260903015259 85 303 0.0 2.0 0.00 0.00 0.00 69 1015.8
20260903015159 85 303 0.0 2.0 0.00 0.00 0.00 69 1015.9
20260903015059 85 303 0.0 2.0 0.00 0.00 0.00 69 1015.9
20260903015003 85 303 0.0 2.0 0.00 0.00 0.00 68 1015.9
20260903014859 85 303 0.0 2.0 0.00 0.00 0.00 68 1015.9
20260903014659 85 289 1.0 2.0 0.00 0.00 0.00 68 1015.9
20260903014601 85 288 0.0 2.0 0.00 0.00 0.00 68 1015.8
20260903014501 85 280 0.0 2.0 0.00 0.00 0.00 69 1015.8
20260903014059 85 323 0.0 2.0 0.00 0.00 0.00 68 1015.6
20260903014003 85 304 2.0 2.0 0.00 0.00 0.00 68 1015.6
20260903013900 85 328 0.0 2.0 0.00 0.00 0.00 68 1015.6
20260903013759 85 336 1.0 1.0 0.00 0.00 0.00 68 1015.7
20260903013659 85 328 0.0 1.0 0.00 0.00 0.00 68 1015.7
20260903013600 85 326 0.0 1.0 0.00 0.00 0.00 68 1015.6
20260903013501 85 311 0.0 1.0 0.00 0.00 0.00 68 1015.6
20260903013359 85 317 0.0 1.0 0.00 0.00 0.00 68 1015.7
20260903013259 85 317 0.0 1.0 0.00 0.00 0.00 68 1015.6
20260903013159 85 302 0.0 2.0 0.00 0.00 0.00 67 1015.7
20260903013059 85 324 0.0 2.0 0.00 0.00 0.00 67 1015.6
20260903013003 85 293 0.0 2.0 0.00 0.00 0.00 67 1015.6
20260903012859 85 293 0.0 2.0 0.00 0.00 0.00 67 1015.6
20260903012759 85 293 0.0 2.0 0.00 0.00 0.00 67 1015.6
20260903012658 85 293 0.0 2.0 0.00 0.00 0.00 67 1015.6
20260903012600 85 293 0.0 2.0 0.00 0.00 0.00 67 1015.6
20260903012400 85 295 0.0 2.0 0.00 0.00 0.00 67 1015.7
20260903011859 85 320 0.0 1.0 0.00 0.00 0.00 67 1015.7
20260903011759 85 320 0.0 1.0 0.00 0.00 0.00 67 1015.7
20260903011658 85 320 0.0 1.0 0.00 0.00 0.00 67 1015.7
20260903011600 85 320 0.0 1.0 0.00 0.00 0.00 67 1015.6
20260903011501 85 321 1.0 1.0 0.00 0.00 0.00 67 1015.7
20260903011401 85 314 0.0 1.0 0.00 0.00 0.00 67 1015.7
20260903011259 85 294 0.0 1.0 0.00 0.00 0.00 67 1015.7
20260903011200 85 331 0.0 0.0 0.00 0.00 0.00 67 1015.7
20260903011003 85 314 0.0 0.0 0.00 0.00 0.00 66 1015.6
20260903010859 86 314 0.0 0.0 0.00 0.00 0.00 66 1015.6
20260903010800 86 314 0.0 0.0 0.00 0.00 0.00 66 1015.6
20260903010700 86 314 0.0 1.0 0.00 0.00 0.00 66 1015.6
20260903010559 86 314 0.0 1.0 0.00 0.00 0.00 66 1015.6
20260903010359 86 314 0.0 1.0 0.00 0.00 0.00 66 1015.6
20260903010259 86 314 0.0 1.0 0.00 0.00 0.00 66 1015.6
20260903010003 86 295 0.0 1.0 0.00 0.00 0.00 66 1015.6
20260903005858 86 298 0.0 1.0 0.00 0.00 0.00 65 1015.6
20260903005658 86 296 0.0 1.0 0.00 0.00 0.00 65 1015.6
20260903005559 86 297 0.0 1.0 0.00 0.00 0.00 65 1015.7
20260903005459 86 308 0.0 1.0 0.00 0.00 0.00 65 1015.6
20260903005358 86 309 0.0 1.0 0.00 0.00 0.00 65 1015.6
20260903005258 86 311 0.0 0.0 0.00 0.00 0.00 65 1015.6
20260903005158 86 311 0.0 0.0 0.00 0.00 0.00 65 1015.6
20260903005059 86 311 0.0 0.0 0.00 0.00 0.00 65 1015.6
20260903005003 86 330 0.0 1.0 0.00 0.00 0.00 65 1015.6
20260903004857 86 330 0.0 1.0 0.00 0.00 0.00 65 1015.6
20260903004658 86 330 0.0 1.0 0.00 0.00 0.00 64 1015.6
20260903004600 86 330 0.0 1.0 0.00 0.00 0.00 64 1015.6
20260903004459 86 330 0.0 1.0 0.00 0.00 0.00 64 1015.6
20260903004359 87 330 0.0 1.0 0.00 0.00 0.00 64 1015.6
20260903004258 87 330 0.0 1.0 0.00 0.00 0.00 64 1015.6
20260903004059 87 299 0.0 1.0 0.00 0.00 0.00 64 1015.5
20260903003858 87 303 0.0 1.0 0.00 0.00 0.00 64 1015.5
20260903003759 87 303 0.0 1.0 0.00 0.00 0.00 63 1015.4
20260903003658 87 303 0.0 1.0 0.00 0.00 0.00 63 1015.5
20260903003559 87 305 0.0 1.0 0.00 0.00 0.00 63 1015.5
20260903003459 87 305 0.0 1.0 0.00 0.00 0.00 63 1015.6
20260903003358 87 305 0.0 1.0 0.00 0.00 0.00 63 1015.6
20260903003259 87 305 0.0 1.0 0.00 0.00 0.00 63 1015.5
20260903003159 87 312 0.0 1.0 0.00 0.00 0.00 63 1015.5
20260903003003 87 352 0.0 1.0 0.00 0.00 0.00 63 1015.6
20260903002858 87 331 0.0 1.0 0.00 0.00 0.00 63 1015.6
20260903002757 87 331 0.0 1.0 0.00 0.00 0.00 63 1015.6
20260903002659 87 331 0.0 1.0 0.00 0.00 0.00 63 1015.6
20260903002558 87 309 0.0 1.0 0.00 0.00 0.00 63 1015.6
20260903002500 87 304 0.0 1.0 0.00 0.00 0.00 63 1015.6
20260903002357 87 314 0.0 1.0 0.00 0.00 0.00 63 1015.6
20260903002259 87 343 0.0 2.0 0.00 0.00 0.00 63 1015.5
20260903002158 87 315 0.0 2.0 0.00 0.00 0.00 63 1015.6
20260903002058 87 323 0.0 3.0 0.00 0.00 0.00 63 1015.5
20260903002003 87 343 0.0 3.0 0.00 0.00 0.00 62 1015.5
20260903001859 88 354 0.0 3.0 0.00 0.00 0.00 62 1015.5
20260903001758 88 355 0.0 3.0 0.00 0.00 0.00 62 1015.5
20260903001658 88 356 0.0 3.0 0.00 0.00 0.00 62 1015.5
20260903001558 88 335 0.0 3.0 0.00 0.00 0.00 62 1015.5
20260903001500 88 350 0.0 3.0 0.00 0.00 0.00 62 1015.4
20260903001358 88 330 0.0 3.0 0.00 0.00 0.00 62 1015.5
20260903001258 88 324 0.0 3.0 0.00 0.00 0.00 62 1015.5
20260903001159 88 359 0.0 3.0 0.00 0.00 0.00 62 1015.5
20260903001058 88 324 0.0 3.0 0.00 0.00 0.00 62 1015.4
20260903001003 88 324 0.0 3.0 0.00 0.00 0.00 62 1015.4
20260903000858 88 326 0.0 3.0 0.00 0.00 0.00 62 1015.5
20260903000759 88 347 0.0 3.0 0.00 0.00 0.00 62 1015.5
20260903000658 88 333 0.0 3.0 0.00 0.00 0.00 61 1015.4
20260903000459 88 62 1.0 3.0 0.00 0.00 0.00 61 1015.3
20260903000357 88 335 0.0 3.0 0.00 0.00 0.00 61 1015.3
20260903000257 88 308 0.0 3.0 0.00 0.00 0.00 61 1015.4
20260903000159 88 334 0.0 3.0 0.00 0.00 0.00 61 1015.4
20260903000059 88 360 2.0 3.0 0.00 0.00 0.00 61 1015.4
20260902235859 88 77 0.0 3.0 0.00 0.00 0.00 61 1015.4
20260902235757 88 8 0.0 3.0 0.00 0.00 0.00 61 1015.4
20260902235658 88 345 0.0 3.0 0.00 0.00 0.00 61 1015.4
20260902235558 88 360 0.0 3.0 0.00 0.00 0.00 60 1015.4
20260902235500 88 338 1.0 3.0 0.00 0.00 0.00 60 1015.4
20260902235359 89 36 2.0 3.0 0.00 0.00 0.00 60 1015.4
20260902235258 89 13 0.0 3.0 0.00 0.00 0.00 60 1015.4
20260902235158 89 347 2.0 3.0 0.00 0.00 0.00 60 1015.4
20260902235058 89 62 2.0 3.0 0.00 0.00 0.00 60 1015.4
20260902235002 89 360 3.0 3.0 0.00 0.00 0.00 60 1015.3
20260902234858 89 13 2.0 3.0 0.00 0.00 0.00 60 1015.4
20260902234758 89 22 1.0 3.0 0.00 0.00 0.00 60 1015.3
20260902234658 89 13 3.0 3.0 0.00 0.00 0.00 60 1015.3
20260902234559 89 26 0.0 3.0 0.00 0.00 0.00 60 1015.3
20260902234459 89 29 0.0 3.0 0.00 0.00 0.00 59 1015.3
20260902234358 89 6 1.0 3.0 0.00 0.00 0.00 59 1015.2
20260902234258 89 121 0.0 3.0 0.00 0.00 0.00 59 1015.2
20260902234158 89 341 1.0 3.0 0.00 0.00 0.00 59 1015.2
20260902234000 89 340 2.0 4.0 0.00 0.00 0.00 59 1015.3
20260902233858 89 15 1.0 4.0 0.00 0.00 0.00 59 1015.2
20260902233659 89 326 0.0 4.0 0.00 0.00 0.00 59 1015.2
20260902233559 89 3 1.0 5.0 0.00 0.00 0.00 59 1015.1
20260902233500 89 355 0.0 5.0 0.00 0.00 0.00 59 1015.2
20260902233358 89 8 3.0 5.0 0.00 0.00 0.00 59 1015.1
20260902233258 89 11 1.0 5.0 0.00 0.00 0.00 58 1015.2
20260902233157 89 347 1.0 5.0 0.00 0.00 0.00 58 1015.2
20260902233059 89 34 1.0 5.0 0.00 0.00 0.00 58 1015.1
20260902233003 89 17 2.0 5.0 0.00 0.00 0.00 58 1015.2
20260902232858 90 56 0.0 5.0 0.00 0.00 0.00 58 1015.2
20260902232758 90 26 4.0 5.0 0.00 0.00 0.00 58 1015.2
20260902232659 90 350 1.0 3.0 0.00 0.00 0.00 58 1015.2
20260902232558 90 27 0.0 3.0 0.00 0.00 0.00 58 1015.1
20260902232458 90 70 3.0 3.0 0.00 0.00 0.00 58 1015.1
20260902232358 90 336 0.0 3.0 0.00 0.00 0.00 57 1015.2
20260902232259 90 37 0.0 3.0 0.00 0.00 0.00 58 1015.2
20260902232059 90 23 2.0 3.0 0.00 0.00 0.00 57 1015.1
20260902232003 90 317 0.0 4.0 0.00 0.00 0.00 57 1015.0
20260902231858 90 319 1.0 4.0 0.00 0.00 0.00 57 1015.0
20260902231758 90 5 1.0 4.0 0.00 0.00 0.00 57 1015.0
20260902231659 90 348 0.0 4.0 0.00 0.00 0.00 57 1015.1
20260902231558 90 341 0.0 4.0 0.00 0.00 0.00 57 1015.0
20260902231459 90 342 1.0 4.0 0.00 0.00 0.00 57 1015.0
20260902231358 90 46 3.0 4.0 0.00 0.00 0.00 57 1015.0
20260902231259 90 12 1.0 4.0 0.00 0.00 0.00 57 1015.0
20260902231158 90 335 0.0 4.0 0.00 0.00 0.00 57 1015.0
20260902231058 90 38 1.0 4.0 0.00 0.00 0.00 57 1015.0
20260902231002 90 137 0.0 5.0 0.00 0.00 0.00 57 1015.0
20260902230858 90 146 0.0 5.0 0.00 0.00 0.00 56 1015.0
20260902230758 90 39 2.0 5.0 0.00 0.00 0.00 56 1015.1
20260902230658 90 4 3.0 5.0 0.00 0.00 0.00 57 1015.1
20260902230558 90 1 2.0 5.0 0.00 0.00 0.00 57 1015.2
20260902230359 90 8 1.0 6.0 0.00 0.00 0.00 56 1015.1
20260902230259 90 136 0.0 6.0 0.00 0.00 0.00 56 1015.1
20260902230158 90 336 0.0 6.0 0.00 0.00 0.00 56 1015.2
20260902230058 90 58 0.0 6.0 0.00 0.00 0.00 56 1015.0
20260902230002 90 50 0.0 6.0 0.00 0.00 0.00 56 1015.0
20260902225858 91 26 3.0 6.0 0.00 0.00 0.00 56 1015.0
20260902225758 91 15 1.0 6.0 0.00 0.00 0.00 56 1015.0
20260902225658 91 45 2.0 6.0 0.00 0.00 0.00 56 1015.0
20260902225558 91 70 2.0 6.0 0.00 0.00 0.00 55 1015.0
20260902225500 91 61 2.0 7.0 0.00 0.00 0.00 56 1015.0
20260902225258 91 27 3.0 7.0 0.00 0.00 0.00 55 1015.0
20260902225157 91 25 2.0 7.0 0.00 0.00 0.00 55 1014.9
20260902225059 91 23 3.0 7.0 0.00 0.00 0.00 55 1015.0
20260902225002 91 44 3.0 7.0 0.00 0.00 0.00 55 1014.8
20260902224858 91 283 3.0 7.0 0.00 0.00 0.00 55 1014.9
20260902224759 91 63 3.0 7.0 0.00 0.00 0.00 55 1014.9
20260902224658 91 17 3.0 7.0 0.00 0.00 0.00 55 1014.9
20260902224558 91 330 2.0 6.0 0.00 0.00 0.00 55 1014.9
20260902224501 92 356 3.0 6.0 0.00 0.00 0.00 55 1015.0
20260902224358 92 350 3.0 6.0 0.00 0.00 0.00 54 1015.0
20260902224258 92 349 4.0 6.0 0.00 0.00 0.00 55 1015.0
20260902224057 92 338 4.0 6.0 0.00 0.00 0.00 54 1015.1
20260902224000 92 10 3.0 6.0 0.00 0.00 0.00 55 1015.0
20260902223759 92 55 2.0 6.0 0.00 0.00 0.00 55 1015.0
20260902223658 92 4 3.0 6.0 0.00 0.00 0.00 55 1015.0
20260902223559 92 336 4.0 8.0 0.00 0.00 0.00 55 1015.0
20260902223500 92 27 2.0 8.0 0.00 0.00 0.00 54 1015.1
20260902223358 92 320 0.0 8.0 0.00 0.00 0.00 54 1015.1
20260902223259 92 15 3.0 8.0 0.00 0.00 0.00 54 1015.1
20260902223158 92 60 4.0 8.0 0.00 0.00 0.00 54 1015.1
20260902223058 92 10 5.0 8.0 0.00 0.00 0.00 54 1015.1
20260902223003 92 67 3.0 8.0 0.00 0.00 0.00 54 1015.0
20260902222758 92 17 3.0 8.0 0.00 0.00 0.00 54 1015.0
20260902222658 92 27 6.0 8.0 0.00 0.00 0.00 54 1015.0
20260902222558 92 22 4.0 7.0 0.00 0.00 0.00 54 1015.0
20260902222459 92 273 2.0 6.0 0.00 0.00 0.00 54 1014.9
20260902222358 92 15 5.0 6.0 0.00 0.00 0.00 54 1015.0
20260902222258 92 342 3.0 6.0 0.00 0.00 0.00 54 1015.0
20260902222158 92 24 4.0 6.0 0.00 0.00 0.00 54 1015.0
20260902222000 92 15 6.0 6.0 0.00 0.00 0.00 54 1015.0
20260902221758 92 23 4.0 6.0 0.00 0.00 0.00 55 1015.0
20260902221658 92 359 3.0 6.0 0.00 0.00 0.00 55 1015.0
20260902221558 92 18 4.0 6.0 0.00 0.00 0.00 54 1015.0
20260902221501 92 34 3.0 6.0 0.00 0.00 0.00 54 1015.0
20260902221358 92 15 4.0 6.0 0.00 0.00 0.00 54 1015.0
20260902221258 92 23 4.0 6.0 0.00 0.00 0.00 54 1015.1
20260902221158 92 114 2.0 6.0 0.00 0.00 0.00 54 1015.0
20260902221059 92 8 4.0 6.0 0.00 0.00 0.00 54 1015.1
20260902221003 92 360 2.0 6.0 0.00 0.00 0.00 54 1015.0
20260902220859 92 57 3.0 6.0 0.00 0.00 0.00 54 1015.1
20260902220758 92 53 3.0 6.0 0.00 0.00 0.00 54 1015.1
20260902220658 92 353 2.0 6.0 0.00 0.00 0.00 53 1015.0
20260902220557 92 5 4.0 5.0 0.00 0.00 0.00 53 1015.0
20260902220359 92 10 4.0 5.0 0.00 0.00 0.00 53 1015.0
20260902220259 92 122 3.0 6.0 0.00 0.00 0.00 53 1015.0
20260902220159 92 1 0.0 6.0 0.00 0.00 0.00 53 1015.0
20260902220058 92 359 3.0 6.0 0.00 0.00 0.00 53 1015.1
20260902220000 92 359 4.0 6.0 0.00 0.00 0.00 53 1015.1
20260902215759 92 6 2.0 6.0 0.00 0.00 0.00 53 1015.2
20260902215659 92 359 4.0 6.0 0.00 0.00 0.00 53 1015.1
20260902215558 92 1 4.0 6.0 0.00 0.00 0.00 52 1015.2
20260902215459 92 27 3.0 6.0 0.00 0.00 0.00 52 1015.2
20260902215259 93 22 4.0 6.0 0.00 0.00 0.00 52 1015.2
20260902215158 93 356 4.0 6.0 0.00 0.00 0.00 52 1015.2
20260902215002 93 39 4.0 6.0 0.00 0.00 0.00 52 1015.1
20260902214858 93 350 2.0 6.0 0.00 0.00 0.00 51 1015.2
20260902214758 93 24 1.0 6.0 0.00 0.00 0.00 52 1015.2
20260902214659 93 13 4.0 6.0 0.00 0.00 0.00 51 1015.2
20260902214459 93 75 2.0 8.0 0.00 0.00 0.00 51 1015.2
20260902214358 93 360 5.0 8.0 0.00 0.00 0.00 51 1015.2
20260902214159 93 330 2.0 8.0 0.00 0.00 0.00 51 1015.2
20260902214059 93 34 0.0 8.0 0.00 0.00 0.00 51 1015.1
20260902214002 93 345 4.0 8.0 0.00 0.00 0.00 50 1015.2
20260902213858 94 15 3.0 8.0 0.00 0.00 0.00 50 1015.2
20260902213758 94 8 2.0 8.0 0.00 0.00 0.00 50 1015.2
20260902213659 94 316 1.0 8.0 0.00 0.00 0.00 49 1015.1
20260902213558 94 17 7.0 8.0 0.00 0.00 0.00 49 1015.2
20260902213459 94 343 4.0 8.0 0.00 0.00 0.00 49 1015.2
20260902213358 95 348 3.0 8.0 0.00 0.00 0.00 48 1015.2
20260902213258 95 6 4.0 8.0 0.00 0.00 0.00 48 1015.2
20260902213159 95 339 4.0 8.0 0.00 0.00 0.00 48 1015.3
20260902213058 95 26 4.0 8.0 0.00 0.00 0.00 48 1015.2
20260902213002 95 347 2.0 8.0 0.00 0.00 0.00 48 1015.3
20260902212858 95 340 4.0 8.0 0.00 0.00 0.00 48 1015.2
20260902212758 95 11 3.0 8.0 0.00 0.00 0.00 48 1015.2
20260902212658 95 5 7.0 8.0 0.00 0.00 0.00 47 1015.3
20260902212559 95 357 6.0 8.0 0.00 0.00 0.00 47 1015.4
20260902212259 96 71 5.0 7.0 0.00 0.00 0.00 48 1015.3
20260902212158 96 348 3.0 7.0 0.00 0.00 0.00 48 1015.3
20260902212003 95 358 4.0 7.0 0.00 0.00 0.00 48 1015.3
20260902211858 95 353 3.0 7.0 0.00 0.00 0.00 47 1015.3
20260902211759 95 46 2.0 7.0 0.00 0.00 0.00 47 1015.2
20260902211559 95 13 4.0 7.0 0.00 0.00 0.00 48 1015.2
20260902211459 95 38 3.0 7.0 0.00 0.00 0.00 47 1015.2
20260902211359 95 22 2.0 7.0 0.00 0.00 0.00 47 1015.2
20260902211158 95 49 4.0 7.0 0.00 0.00 0.00 48 1015.2
20260902211001 94 84 5.0 7.0 0.00 0.00 0.00 48 1015.2
20260902210858 94 351 4.0 7.0 0.00 0.00 0.00 48 1015.2
20260902210758 94 15 3.0 8.0 0.00 0.00 0.00 49 1015.2
20260902210659 94 355 3.0 11.0 0.00 0.00 0.00 50 1015.2
20260902210459 94 355 4.0 11.0 0.00 0.00 0.00 49 1015.3
20260902210359 94 306 2.0 11.0 0.00 0.00 0.00 49 1015.3
20260902210258 94 330 2.0 11.0 0.00 0.00 0.00 48 1015.4
20260902210158 94 341 4.0 11.0 0.00 0.00 0.00 48 1015.3
20260902210003 95 53 5.0 11.0 0.00 0.00 0.00 49 1015.3
20260902205757 95 34 5.0 9.0 0.00 0.00 0.00 47 1015.4
20260902205658 95 22 4.0 9.0 0.00 0.00 0.00 47 1015.4
20260902205558 96 83 2.0 9.0 0.00 0.00 0.00 47 1015.3
20260902205358 96 29 1.0 9.0 0.00 0.00 0.00 47 1015.4
20260902205258 96 359 3.0 9.0 0.00 0.00 0.00 46 1015.4
20260902205158 96 3 6.0 9.0 0.00 0.00 0.00 46 1015.4
20260902205058 96 4 6.0 8.0 0.00 0.00 0.00 46 1015.3
20260902205002 96 1 7.0 8.0 0.00 0.00 0.00 46 1015.4
20260902204859 96 11 7.0 8.0 0.00 0.00 0.00 45 1015.4
20260902204758 96 61 2.0 8.0 0.00 0.00 0.00 45 1015.4
20260902204657 96 354 4.0 8.0 0.00 0.00 0.00 45 1015.4
20260902204558 96 73 5.0 8.0 0.00 0.00 0.00 45 1015.4
20260902204459 97 45 4.0 8.0 0.00 0.00 0.00 45 1015.5
20260902204358 97 72 3.0 8.0 0.00 0.00 0.00 45 1015.4
20260902204259 97 37 4.0 9.0 0.00 0.00 0.00 46 1015.3
20260902204158 96 8 4.0 9.0 0.00 0.00 0.00 46 1015.4
20260902204059 96 67 3.0 9.0 0.00 0.00 0.00 46 1015.3
20260902204003 96 26 3.0 9.0 0.00 0.00 0.00 46 1015.4
20260902203858 96 41 3.0 9.0 0.00 0.00 0.00 47 1015.4
20260902203657 96 38 0.0 9.0 0.00 0.00 0.00 46 1015.3
20260902203559 96 348 3.0 9.0 0.00 0.00 0.00 47 1015.4
20260902203500 96 25 3.0 9.0 0.00 0.00 0.00 46 1015.5
20260902203358 96 18 3.0 8.0 0.00 0.00 0.00 47 1015.4
20260902203259 96 63 3.0 8.0 0.00 0.00 0.00 46 1015.5
20260902203158 96 29 5.0 8.0 0.00 0.00 0.00 46 1015.5
20260902203058 97 5 5.0 8.0 0.00 0.00 0.00 46 1015.4
20260902203002 97 27 5.0 8.0 0.00 0.00 0.00 46 1015.5
20260902202858 97 360 5.0 8.0 0.00 0.00 0.00 45 1015.4
20260902202758 97 6 6.0 8.0 0.00 0.00 0.00 45 1015.4
20260902202658 97 323 3.0 8.0 0.00 0.00 0.00 44 1015.5
20260902202558 97 17 3.0 8.0 0.00 0.00 0.00 43 1015.5
20260902202500 97 25 2.0 8.0 0.00 0.00 0.00 44 1015.5
20260902202359 97 15 4.0 8.0 0.00 0.00 0.00 44 1015.5
20260902202258 97 3 6.0 8.0 0.00 0.00 0.00 45 1015.5
20260902202159 97 15 7.0 8.0 0.00 0.00 0.00 46 1015.5
20260902202058 97 13 8.0 8.0 0.00 0.00 0.00 45 1015.5
20260902202000 97 350 4.0 8.0 0.00 0.00 0.00 45 1015.5
20260902201858 96 354 5.0 8.0 0.00 0.00 0.00 46 1015.5
20260902201758 96 332 5.0 8.0 0.00 0.00 0.00 45 1015.5
20260902201659 96 316 3.0 8.0 0.00 0.00 0.00 45 1015.6
20260902201558 96 334 4.0 8.0 0.00 0.00 0.00 45 1015.5
20260902201459 96 337 5.0 8.0 0.00 0.00 0.00 46 1015.6
20260902201358 96 344 4.0 8.0 0.00 0.00 0.00 45 1015.5
20260902201258 96 13 8.0 8.0 0.00 0.00 0.00 45 1015.6
20260902201057 97 358 4.0 8.0 0.00 0.00 0.00 45 1015.6
20260902201002 97 22 4.0 8.0 0.00 0.00 0.00 44 1015.6
20260902200859 97 356 5.0 8.0 0.00 0.00 0.00 43 1015.7
20260902200758 98 17 5.0 8.0 0.00 0.00 0.00 44 1015.7
20260902200558 99 22 4.0 8.0 0.00 0.00 0.00 43 1015.7
20260902200500 99 13 5.0 9.0 0.00 0.00 0.00 43 1015.6
20260902200359 99 3 2.0 9.0 0.00 0.00 0.00 44 1015.6
20260902200259 98 11 5.0 9.0 0.00 0.00 0.00 44 1015.6
20260902200158 98 1 4.0 9.0 0.00 0.00 0.00 44 1015.7
20260902200004 98 49 5.0 9.0 0.00 0.00 0.00 42 1015.7
20260902195858 98 4 4.0 9.0 0.00 0.00 0.00 43 1015.7
20260902195757 97 353 4.0 9.0 0.00 0.00 0.00 44 1015.8
20260902195659 98 332 4.0 9.0 0.00 0.00 0.00 43 1015.8
20260902195500 98 331 6.0 9.0 0.00 0.00 0.00 42 1015.9
20260902195358 99 24 3.0 9.0 0.00 0.00 0.00 43 1015.9
20260902195258 99 353 5.0 9.0 0.00 0.00 0.00 42 1015.9
20260902195158 99 48 2.0 7.0 0.00 0.00 0.00 43 1015.9
20260902195000 98 1 6.0 7.0 0.00 0.00 0.00 45 1015.9
20260902194757 96 347 5.0 7.0 0.00 0.00 0.00 45 1015.9
20260902194459 97 33 3.0 8.0 0.00 0.00 0.00 44 1016.0
20260902194358 97 50 2.0 8.0 0.00 0.00 0.00 44 1016.0
20260902194259 97 308 1.0 8.0 0.00 0.00 0.00 44 1016.0
20260902194158 97 56 3.0 8.0 0.00 0.00 0.00 45 1015.9
20260902194058 97 27 4.0 8.0 0.00 0.00 0.00 44 1016.0
20260902194003 97 120 2.0 8.0 0.00 0.00 0.00 45 1015.9
20260902193858 97 3 3.0 8.0 0.00 0.00 0.00 44 1016.0
20260902193759 97 39 1.0 7.0 0.00 0.00 0.00 44 1016.0
20260902193657 97 20 5.0 7.0 0.00 0.00 0.00 44 1016.0
20260902193558 97 1 5.0 7.0 0.00 0.00 0.00 44 1016.0
20260902193459 98 314 3.0 8.0 0.00 0.00 0.00 44 1016.1
20260902193358 97 345 4.0 8.0 0.00 0.00 0.00 44 1016.0
20260902193258 97 8 3.0 8.0 0.00 0.00 0.00 45 1016.0
20260902193158 97 335 4.0 9.0 0.00 0.00 0.00 44 1016.0
20260902193059 97 320 3.0 9.0 0.00 0.00 0.00 44 1016.0
20260902193000 98 358 4.0 9.0 0.00 0.00 0.00 44 1016.1
20260902192858 97 4 7.0 9.0 0.00 0.00 0.00 44 1016.1
20260902192758 97 344 6.0 9.0 0.00 0.00 0.00 44 1016.1
20260902192658 97 17 6.0 9.0 0.00 0.00 0.00 43 1016.2
20260902192559 98 15 4.0 9.0 0.00 0.00 0.00 43 1016.2
20260902192459 98 70 6.0 9.0 0.00 0.00 0.00 43 1016.3
20260902192358 98 358 8.0 9.0 0.00 0.00 0.00 43 1016.2
20260902192257 98 6 6.0 9.0 0.00 0.00 0.00 44 1016.3
20260902192058 97 358 4.0 8.0 0.00 0.00 0.00 45 1016.2
20260902191858 97 346 5.0 8.0 0.00 0.00 0.00 45 1016.3
20260902191758 97 1 5.0 8.0 0.00 0.00 0.00 44 1016.4
20260902191658 97 30 2.0 8.0 0.00 0.00 0.00 44 1016.3
20260902191558 97 343 6.0 8.0 0.00 0.00 0.00 45 1016.3
20260902191459 97 329 6.0 8.0 0.00 0.00 0.00 45 1016.5
20260902191259 96 331 4.0 9.0 0.00 0.00 0.00 44 1016.5
20260902191159 95 345 5.0 9.0 0.00 0.00 0.00 44 1016.4
20260902191058 95 46 3.0 9.0 0.00 0.00 0.00 43 1016.5
20260902191003 96 23 3.0 9.0 0.00 0.00 0.00 43 1016.5
20260902190858 96 53 0.0 9.0 0.00 0.00 0.00 42 1016.5
20260902190759 96 8 5.0 9.0 0.00 0.00 0.00 42 1016.6
20260902190657 96 355 6.0 9.0 0.00 0.00 0.00 42 1016.6
20260902190559 97 1 3.0 9.0 0.00 0.00 0.00 41 1016.7
20260902190459 97 8 9.0 9.0 0.00 0.00 0.00 42 1016.6
20260902190359 97 347 7.0 9.0 0.00 0.00 0.00 43 1016.6
20260902190258 98 8 5.0 9.0 0.00 0.00 0.00 42 1016.6
20260902190157 98 358 6.0 9.0 0.00 0.00 0.00 42 1016.6
20260902190058 98 338 7.0 9.0 0.00 0.00 0.00 44 1016.7
20260902190004 98 11 4.0 9.0 0.00 0.00 0.00 45 1016.7
20260902185858 98 328 4.0 9.0 0.00 0.00 0.00 46 1016.6
20260902185657 97 22 4.0 9.0 0.00 0.00 0.00 47 1016.6
20260902185558 97 346 4.0 9.0 0.00 0.00 0.00 46 1016.6
20260902185459 97 4 1.0 9.0 0.00 0.00 0.00 46 1016.7
20260902185158 98 353 7.0 9.0 0.00 0.00 0.00 46 1016.7
20260902184858 97 22 4.0 8.0 0.00 0.00 0.00 45 1016.8
20260902184658 97 22 6.0 8.0 0.00 0.00 0.00 45 1016.7
20260902184557 97 352 7.0 8.0 0.00 0.00 0.00 45 1016.6
20260902184358 97 332 2.0 8.0 0.00 0.00 0.00 45 1016.7
20260902184258 97 27 3.0 8.0 0.00 0.00 0.00 45 1016.7
20260902184158 97 358 5.0 8.0 0.00 0.00 0.00 46 1016.8
20260902184058 97 339 7.0 8.0 0.00 0.00 0.00 45 1016.8
20260902183758 97 313 3.0 7.0 0.00 0.00 0.00 44 1016.9
20260902183558 97 30 2.0 7.0 0.00 0.00 0.00 44 1016.8
20260902183500 97 353 3.0 7.0 0.00 0.00 0.00 44 1016.8
20260902183358 97 10 2.0 7.0 0.00 0.00 0.00 45 1016.8
20260902183258 97 17 0.0 7.0 0.00 0.00 0.00 44 1016.9
20260902183158 97 339 3.0 7.0 0.00 0.00 0.00 44 1016.9
20260902183058 97 333 2.0 7.0 0.00 0.00 0.00 44 1016.9
20260902182858 97 20 4.0 8.0 0.00 0.00 0.00 42 1016.8
20260902182759 97 75 4.0 8.0 0.00 0.00 0.00 43 1016.9
20260902182558 97 11 3.0 8.0 0.00 0.00 0.00 46 1016.9
20260902182500 96 355 3.0 8.0 0.00 0.00 0.00 46 1016.8
20260902182159 96 357 5.0 8.0 0.00 0.00 0.00 46 1017.0
20260902182057 96 331 8.0 8.0 0.00 0.00 0.00 47 1016.9
20260902182000 96 10 5.0 8.0 0.00 0.00 0.00 47 1016.9
20260902181858 96 13 3.0 8.0 0.00 0.00 0.00 46 1016.9
20260902181658 96 345 6.0 8.0 0.00 0.00 0.00 47 1016.9
20260902181558 96 349 5.0 8.0 0.00 0.00 0.00 46 1017.0
20260902181459 96 341 5.0 8.0 0.00 0.00 0.00 46 1016.9
20260902181358 96 342 5.0 8.0 0.00 0.00 0.00 46 1017.0
20260902181257 95 360 5.0 9.0 0.00 0.00 0.00 46 1016.9
20260902181059 96 11 4.0 9.0 0.00 0.00 0.00 46 1017.0
20260902181003 96 316 3.0 9.0 0.00 0.00 0.00 46 1017.0
20260902180858 96 19 3.0 9.0 0.00 0.00 0.00 47 1017.0
20260902180758 96 345 6.0 9.0 0.00 0.00 0.00 47 1017.0
20260902180657 96 357 4.0 9.0 0.00 0.00 0.00 47 1017.1
20260902180559 95 3 5.0 9.0 0.00 0.00 0.00 48 1017.1
20260902180459 95 13 6.0 9.0 0.00 0.00 0.00 47 1017.0
20260902180259 95 4 3.0 8.0 0.00 0.00 0.00 46 1017.1
20260902180058 96 38 1.0 8.0 0.00 0.00 0.00 45 1017.1
20260902180001 96 8 3.0 8.0 0.00 0.00 0.00 45 1017.2
20260902175758 95 4 6.0 8.0 0.00 0.00 0.00 47 1017.3
20260902175658 95 17 2.0 8.0 0.00 0.00 0.00 45 1017.2
20260902175559 95 6 2.0 8.0 0.00 0.00 0.00 46 1017.3
20260902175500 95 8 2.0 8.0 0.00 0.00 0.00 46 1017.4
20260902175358 96 345 4.0 8.0 0.00 0.00 0.00 46 1017.3
20260902175257 96 354 4.0 8.0 0.00 0.00 0.00 46 1017.3
20260902175157 96 23 4.0 8.0 0.00 0.00 0.00 47 1017.3
20260902175058 97 352 7.0 8.0 0.00 0.00 0.00 47 1017.3
20260902175003 96 44 4.0 9.0 0.00 0.00 0.00 47 1017.2
20260902174857 96 357 6.0 9.0 0.00 0.00 0.00 47 1017.3
20260902174758 95 360 5.0 9.0 0.00 0.00 0.00 47 1017.2
20260902174658 95 357 6.0 9.0 0.00 0.00 0.00 47 1017.3
20260902174557 94 358 5.0 9.0 0.00 0.00 0.00 48 1017.3
20260902174459 94 335 6.0 9.0 0.00 0.00 0.00 48 1017.3
20260902174259 94 338 7.0 10.0 0.00 0.00 0.00 47 1017.4
20260902174158 95 345 7.0 10.0 0.00 0.00 0.00 47 1017.4
20260902174058 95 345 6.0 10.0 0.00 0.00 0.00 47 1017.4
20260902174003 95 329 2.0 10.0 0.00 0.00 0.00 45 1017.4
20260902173858 95 68 3.0 10.0 0.00 0.00 0.00 45 1017.5
20260902173759 94 22 3.0 10.0 0.00 0.00 0.00 46 1017.5
20260902173659 94 6 3.0 10.0 0.00 0.00 0.00 47 1017.5
20260902173558 94 105 2.0 10.0 0.00 0.00 0.00 47 1017.6
20260902173359 94 358 2.0 7.0 0.00 0.00 0.00 48 1017.6
20260902173258 94 38 3.0 7.0 0.00 0.00 0.00 49 1017.5
20260902173157 94 63 2.0 7.0 0.00 0.00 0.00 50 1017.6
20260902173058 93 1 7.0 7.0 0.00 0.00 0.00 51 1017.5
20260902173002 93 346 5.0 8.0 0.00 0.00 0.00 52 1017.5
20260902172758 93 319 4.0 8.0 0.00 0.00 0.00 51 1017.5
20260902172558 94 278 1.0 8.0 0.00 0.00 0.00 49 1017.5
20260902172459 94 30 1.0 8.0 0.00 0.00 0.00 49 1017.7
20260902172358 95 46 3.0 8.0 0.00 0.00 0.00 49 1017.7
20260902172258 95 23 4.0 8.0 0.00 0.00 0.00 49 1017.7
20260902172158 95 22 3.0 8.0 0.00 0.00 0.00 49 1017.6
20260902172058 95 337 3.0 8.0 0.00 0.00 0.00 49 1017.7
20260902172004 95 350 6.0 8.0 0.00 0.00 0.00 49 1017.7
20260902171858 95 10 6.0 8.0 0.00 0.00 0.00 50 1017.6
20260902171758 96 100 4.0 8.0 0.00 0.00 0.00 48 1017.8
20260902171658 96 51 4.0 8.0 0.00 0.00 0.00 49 1017.6
20260902171558 96 85 4.0 8.0 0.00 0.00 0.00 49 1017.7
20260902171459 96 1 5.0 8.0 0.00 0.00 0.00 50 1017.5
20260902171357 95 335 5.0 8.0 0.00 0.00 0.00 50 1017.7
20260902171259 95 4 6.0 8.0 0.00 0.00 0.00 50 1017.7
20260902171158 95 3 7.0 8.0 0.00 0.00 0.00 49 1017.6
20260902171057 95 4 5.0 8.0 0.00 0.00 0.00 49 1017.7
20260902170857 95 358 3.0 8.0 0.00 0.00 0.00 49 1017.8
20260902170759 95 20 3.0 8.0 0.00 0.00 0.00 51 1017.8
20260902170658 95 330 3.0 8.0 0.00 0.00 0.00 50 1017.8
20260902170558 95 357 3.0 8.0 0.00 0.00 0.00 50 1017.8
20260902170501 95 344 3.0 8.0 0.00 0.00 0.00 51 1017.9
20260902170357 95 13 6.0 8.0 0.00 0.00 0.00 52 1017.9
20260902170259 95 3 6.0 8.0 0.00 0.00 0.00 51 1017.9
20260902170158 95 356 6.0 8.0 0.00 0.00 0.00 50 1017.9
20260902170058 95 342 8.0 8.0 0.00 0.00 0.00 50 1017.9
20260902165858 95 10 7.0 8.0 0.00 0.00 0.00 49 1017.9
20260902165758 95 350 5.0 8.0 0.00 0.00 0.00 49 1018.0
20260902165658 95 355 6.0 6.0 0.00 0.00 0.00 50 1018.0
20260902165559 94 333 4.0 6.0 0.00 0.00 0.00 51 1018.1
20260902165500 94 70 1.0 6.0 0.00 0.00 0.00 53 1018.1
20260902165359 94 19 3.0 6.0 0.00 0.00 0.00 53 1018.2
20260902165257 94 345 5.0 6.0 0.00 0.00 0.00 53 1018.1
20260902165057 94 318 3.0 6.0 0.00 0.00 0.00 53 1018.2
20260902164858 93 359 5.0 6.0 0.00 0.00 0.00 53 1018.2
20260902164758 93 4 6.0 6.0 0.00 0.00 0.00 53 1018.2
20260902164657 93 338 3.0 6.0 0.00 0.00 0.00 54 1018.2
20260902164500 92 4 2.0 7.0 0.00 0.00 0.00 54 1018.2
20260902164358 92 327 3.0 7.0 0.00 0.00 0.00 54 1018.2
20260902164259 92 342 5.0 8.0 0.00 0.00 0.00 52 1018.2
20260902164158 93 338 3.0 8.0 0.00 0.00 0.00 53 1018.2
20260902164059 93 41 4.0 8.0 0.00 0.00 0.00 53 1018.3
20260902164003 93 353 5.0 8.0 0.00 0.00 0.00 52 1018.3
20260902163858 93 77 2.0 8.0 0.00 0.00 0.00 53 1018.3
20260902163757 93 13 1.0 8.0 0.00 0.00 0.00 53 1018.4
20260902163658 93 334 6.0 8.0 0.00 0.00 0.00 53 1018.3
20260902163558 93 54 2.0 8.0 0.00 0.00 0.00 53 1018.3
20260902163459 94 356 2.0 8.0 0.00 0.00 0.00 53 1018.4
20260902163358 94 11 6.0 8.0 0.00 0.00 0.00 54 1018.3
20260902163257 94 5 5.0 8.0 0.00 0.00 0.00 54 1018.4
20260902163158 94 329 5.0 8.0 0.00 0.00 0.00 54 1018.4
20260902163057 93 342 4.0 8.0 0.00 0.00 0.00 55 1018.4
20260902163000 93 351 5.0 8.0 0.00 0.00 0.00 54 1018.5
20260902162858 93 343 5.0 8.0 0.00 0.00 0.00 54 1018.5
20260902162759 93 331 4.0 8.0 0.00 0.00 0.00 54 1018.5
20260902162558 93 355 6.0 8.0 0.00 0.00 0.00 55 1018.4
20260902162458 93 25 4.0 8.0 0.00 0.00 0.00 54 1018.4
20260902162358 93 30 2.0 8.0 0.00 0.00 0.00 54 1018.4
20260902162258 93 11 2.0 8.0 0.00 0.00 0.00 56 1018.5
20260902162159 93 23 5.0 7.0 0.00 0.00 0.00 55 1018.4
20260902162058 92 355 3.0 7.0 0.00 0.00 0.00 55 1018.4
20260902162001 92 50 3.0 7.0 0.00 0.00 0.00 56 1018.5
20260902161858 92 1 6.0 7.0 0.00 0.00 0.00 56 1018.5
20260902161658 92 66 4.0 8.0 0.00 0.00 0.00 57 1018.5
20260902161558 92 344 5.0 8.0 0.00 0.00 0.00 57 1018.6
20260902161459 92 288 1.0 8.0 0.00 0.00 0.00 57 1018.5
20260902161358 92 1 1.0 8.0 0.00 0.00 0.00 56 1018.5
20260902161258 92 62 4.0 8.0 0.00 0.00 0.00 56 1018.6
20260902161059 92 348 5.0 8.0 0.00 0.00 0.00 56 1018.6
20260902160859 92 13 7.0 8.0 0.00 0.00 0.00 56 1018.5
20260902160757 92 4 3.0 8.0 0.00 0.00 0.00 55 1018.5
20260902160658 93 24 3.0 8.0 0.00 0.00 0.00 55 1018.5
20260902160500 93 20 3.0 8.0 0.00 0.00 0.00 58 1018.5
20260902160358 92 1 6.0 8.0 0.00 0.00 0.00 58 1018.5
20260902160258 92 8 8.0 8.0 0.00 0.00 0.00 57 1018.5
20260902160159 92 3 6.0 8.0 0.00 0.00 0.00 58 1018.6
20260902160057 92 355 3.0 8.0 0.00 0.00 0.00 57 1018.6
20260902160005 92 257 2.0 8.0 0.00 0.00 0.00 57 1018.6
20260902155859 92 13 3.0 8.0 0.00 0.00 0.00 57 1018.5
20260902155658 92 1 3.0 9.0 0.00 0.00 0.00 57 1018.5
20260902155557 92 346 4.0 9.0 0.00 0.00 0.00 57 1018.5
20260902155358 92 15 3.0 9.0 0.00 0.00 0.00 57 1018.6
20260902155258 92 319 4.0 9.0 0.00 0.00 0.00 58 1018.6
20260902155058 91 343 6.0 9.0 0.00 0.00 0.00 58 1018.6
20260902155000 92 336 8.0 9.0 0.00 0.00 0.00 59 1018.6
20260902154758 91 329 5.0 8.0 0.00 0.00 0.00 60 1018.7
20260902154658 91 348 4.0 6.0 0.00 0.00 0.00 59 1018.7
20260902154459 91 15 1.0 9.0 0.00 0.00 0.00 60 1018.7
20260902154359 91 339 4.0 10.0 0.00 0.00 0.00 60 1018.8
20260902154258 90 38 3.0 10.0 0.00 0.00 0.00 60 1018.7
20260902154158 90 65 1.0 10.0 0.00 0.00 0.00 59 1018.7
20260902154059 90 66 2.0 10.0 0.00 0.00 0.00 60 1018.7
20260902154001 90 338 3.0 10.0 0.00 0.00 0.00 61 1018.8
20260902153859 90 335 4.0 10.0 0.00 0.00 0.00 60 1018.8
20260902153758 90 344 6.0 10.0 0.00 0.00 0.00 59 1018.8
20260902153559 91 332 6.0 10.0 0.00 0.00 0.00 59 1018.8
20260902153459 91 339 6.0 10.0 0.00 0.00 0.00 59 1018.7
20260902153358 91 338 3.0 7.0 0.00 0.00 0.00 60 1018.7
20260902153258 91 330 6.0 7.0 0.00 0.00 0.00 59 1018.7
20260902153159 91 332 3.0 7.0 0.00 0.00 0.00 60 1018.7
20260902153000 91 316 6.0 9.0 0.00 0.00 0.00 61 1018.8
20260902152859 91 333 3.0 9.0 0.00 0.00 0.00 62 1018.8
20260902152757 90 6 7.0 9.0 0.00 0.00 0.00 63 1018.7
20260902152659 89 10 2.0 9.0 0.00 0.00 0.00 63 1018.8
20260902152559 89 338 5.0 9.0 0.00 0.00 0.00 63 1018.8
20260902152500 89 323 4.0 9.0 0.00 0.00 0.00 63 1018.7
20260902152358 89 330 4.0 9.0 0.00 0.00 0.00 63 1018.7
20260902152258 89 336 5.0 9.0 0.00 0.00 0.00 62 1018.7
20260902152158 89 327 5.0 9.0 0.00 0.00 0.00 62 1018.7
20260902152003 89 327 6.0 9.0 0.00 0.00 0.00 63 1018.7
20260902151757 89 330 6.0 9.0 0.00 0.00 0.00 63 1018.7
20260902151657 89 331 3.0 9.0 0.00 0.00 0.00 63 1018.7
20260902151559 89 327 4.0 9.0 0.00 0.00 0.00 62 1018.7
20260902151459 89 343 6.0 9.0 0.00 0.00 0.00 62 1018.7
20260902151358 89 350 5.0 8.0 0.00 0.00 0.00 63 1018.7
20260902151258 89 343 6.0 8.0 0.00 0.00 0.00 63 1018.7
20260902151158 89 341 4.0 8.0 0.00 0.00 0.00 63 1018.7
20260902151058 89 345 8.0 9.0 0.00 0.00 0.00 62 1018.7
20260902151003 89 332 7.0 9.0 0.00 0.00 0.00 62 1018.7
20260902150759 90 343 5.0 9.0 0.00 0.00 0.00 62 1018.7
20260902150658 90 349 6.0 9.0 0.00 0.00 0.00 63 1018.6
20260902150558 89 345 4.0 9.0 0.00 0.00 0.00 63 1018.7
20260902150500 89 326 3.0 9.0 0.00 0.00 0.00 63 1018.5
20260902150358 89 353 4.0 9.0 0.00 0.00 0.00 62 1018.6
20260902150259 89 328 5.0 9.0 0.00 0.00 0.00 61 1018.5
20260902150200 90 335 4.0 9.0 0.00 0.00 0.00 62 1018.6
20260902150059 90 334 4.0 8.0 0.00 0.00 0.00 62 1018.6
20260902150002 89 333 6.0 8.0 0.00 0.00 0.00 63 1018.6
20260902145758 88 1 5.0 8.0 0.00 0.00 0.00 64 1018.5
20260902145658 88 359 3.0 8.0 0.00 0.00 0.00 64 1018.5
20260902145558 88 349 7.0 8.0 0.00 0.00 0.00 64 1018.7
20260902145500 88 333 5.0 7.0 0.00 0.00 0.00 64 1018.7
20260902145358 89 345 5.0 7.0 0.00 0.00 0.00 64 1018.7
20260902145158 89 323 5.0 7.0 0.00 0.00 0.00 65 1018.7
20260902145057 89 110 1.0 7.0 0.00 0.00 0.00 66 1018.7
20260902144858 88 340 4.0 7.0 0.00 0.00 0.00 67 1018.7
20260902144659 88 333 4.0 7.0 0.00 0.00 0.00 68 1018.6
20260902144558 88 4 5.0 7.0 0.00 0.00 0.00 69 1018.6
20260902144500 87 352 3.0 7.0 0.00 0.00 0.00 69 1018.6
20260902144358 87 22 2.0 7.0 0.00 0.00 0.00 69 1018.6
20260902144258 87 336 5.0 7.0 0.00 0.00 0.00 69 1018.5
20260902144159 87 345 7.0 7.0 0.00 0.00 0.00 69 1018.5
20260902144057 87 345 3.0 8.0 0.00 0.00 0.00 71 1018.6
20260902144003 87 340 6.0 8.0 0.00 0.00 0.00 70 1018.6
20260902143858 86 341 6.0 8.0 0.00 0.00 0.00 70 1018.5
20260902143758 86 341 5.0 8.0 0.00 0.00 0.00 70 1018.5
20260902143658 86 350 5.0 8.0 0.00 0.00 0.00 70 1018.5
20260902143557 86 319 4.0 8.0 0.00 0.00 0.00 70 1018.5
20260902143458 86 340 5.0 8.0 0.00 0.00 0.00 70 1018.6
20260902143358 86 335 5.0 8.0 0.00 0.00 0.00 70 1018.6
20260902143258 87 339 6.0 8.0 0.00 0.00 0.00 69 1018.5
20260902143158 87 342 5.0 8.0 0.00 0.00 0.00 70 1018.5
20260902143001 86 327 5.0 8.0 0.00 0.00 0.00 72 1018.5
20260902142857 86 330 3.0 8.0 0.00 0.00 0.00 72 1018.5
20260902142657 86 323 4.0 9.0 0.00 0.00 0.00 72 1018.6
20260902142559 85 333 5.0 9.0 0.00 0.00 0.00 73 1018.6
20260902142459 85 333 4.0 9.0 0.00 0.00 0.00 74 1018.6
20260902142358 85 350 4.0 9.0 0.00 0.00 0.00 73 1018.7
20260902142257 85 326 5.0 9.0 0.00 0.00 0.00 74 1018.7
20260902142058 85 350 5.0 9.0 0.00 0.00 0.00 74 1018.7
20260902142002 85 352 3.0 9.0 0.00 0.00 0.00 74 1018.7
20260902141859 84 357 4.0 9.0 0.00 0.00 0.00 74 1018.7
20260902141758 84 333 5.0 9.0 0.00 0.00 0.00 74 1018.8
20260902141558 84 340 4.0 6.0 0.00 0.00 0.00 74 1018.7